Multibeam Report for EX1605L1


Ship Name: Okeanos Explorer
Chief Scientist: McKenna, Lindsay
NOAA/OAR/OER
Source Organization: NOAA Office of Ocean Exploration and Research (OER)
Start Date: 2016-04-20
End Date: 2016-05-11


View ISO Metadata

Visit the full NCEI Bathymetry Viewer


Multibeam Bathymetry

Cruise Details

Project: CAPSTONE CNMI & Mariana Trench MNM (ROV & Mapping)
Instrument: Kongsberg EM302

Data Quality

Number of Files: 922
Number of Records: 522692
BATHYMETRY DATA Quantity Percentage
Number of Beams 225802944 100%
Number of Good Beams 205634501 91.07%
Number of Zero Beams 9745247 4.32%
Number of Flagged Beams 10423196 4.62%

Navigation Totals

Total Time: 499.9644 hours
Total Track Length: 7622.501 km
Average Speed: 15.246 km/hr (8.2322 knots)

Cruise Bounds

Northern Extent: 17.027578
Southern Extent: 11.277156
Western Extent: 143.48756
Eastern Extent: 149.07378

Limits

Minimum Sonar Depth 0 Maximum Sonar Depth 4.9037
Minimum Altitude 0 Maximum Altitude 9902.6631
Minimum Depth 1.75 Maximum Depth 9923.3203

File Information

Full Resolution Bathymetry as collected (raw): 451

Files File Size Description
0000_20160420_010650_EX1605L1_MB.all.mb58.gz 84.49MB Kongsberg multibeam vendor format
0001_20160420_020651_EX1605L1_MB.all.mb58.gz 83.78MB Kongsberg multibeam vendor format
0002_20160420_025506_EX1605L1_MB.all.mb58.gz 74.88MB Kongsberg multibeam vendor format
0003_20160420_035500_EX1605L1_MB.all.mb58.gz 67.82MB Kongsberg multibeam vendor format
0004_20160420_045501_EX1605L1_MB.all.mb58.gz 66.87MB Kongsberg multibeam vendor format
0005_20160420_055508_EX1605L1_MB.all.mb58.gz 52.28MB Kongsberg multibeam vendor format
0006_20160420_095215_EX1605L1_MB.all.mb58.gz 55.04MB Kongsberg multibeam vendor format
0007_20160420_103853_EX1605L1_MB.all.mb58.gz 66.43MB Kongsberg multibeam vendor format
0008_20160420_113855_EX1605L1_MB.all.mb58.gz 66.29MB Kongsberg multibeam vendor format
0009_20160420_123853_EX1605L1_MB.all.mb58.gz 66.99MB Kongsberg multibeam vendor format
0010_20160420_132615_EX1605L1_MB.all.mb58.gz 11.46MB Kongsberg multibeam vendor format
0011_20160420_133136_EX1605L1_MB.all.mb58.gz 169.04MB Kongsberg multibeam vendor format
0012_20160420_143133_EX1605L1_MB.all.mb58.gz 74.52MB Kongsberg multibeam vendor format
0013_20160420_150254_EX1605L1_MB.all.mb58.gz 10.43MB Kongsberg multibeam vendor format
0014_20160420_150725_EX1605L1_MB.all.mb58.gz 140.49MB Kongsberg multibeam vendor format
0015_20160420_160724_EX1605L1_MB.all.mb58.gz 124.73MB Kongsberg multibeam vendor format
0016_20160420_170634_EX1605L1_MB.all.mb58.gz 8.95MB Kongsberg multibeam vendor format
0017_20160420_171250_EX1605L1_MB.all.mb58.gz 5.12MB Kongsberg multibeam vendor format
0018_20160420_171623_EX1605L1_MB.all.mb58.gz 111.14MB Kongsberg multibeam vendor format
0019_20160420_181117_EX1605L1_MB.all.mb58.gz 26.53MB Kongsberg multibeam vendor format
0020_20160420_182333_EX1605L1_MB.all.mb58.gz 5.73MB Kongsberg multibeam vendor format
0021_20160421_052903_EX1605L1_MB.all.mb58.gz 137.33MB Kongsberg multibeam vendor format
0022_20160421_062903_EX1605L1_MB.all.mb58.gz 43.19MB Kongsberg multibeam vendor format
0023_20160421_064903_EX1605L1_MB.all.mb58.gz 3.87MB Kongsberg multibeam vendor format
0024_20160421_065049_EX1605L1_MB.all.mb58.gz 80.70MB Kongsberg multibeam vendor format
0025_20160421_072823_EX1605L1_MB.all.mb58.gz 92.29MB Kongsberg multibeam vendor format
0026_20160421_081138_EX1605L1_MB.all.mb58.gz 9.25MB Kongsberg multibeam vendor format
0027_20160421_081601_EX1605L1_MB.all.mb58.gz 90.11MB Kongsberg multibeam vendor format
0028_20160421_091606_EX1605L1_MB.all.mb58.gz 38.43MB Kongsberg multibeam vendor format
0029_20160421_094355_EX1605L1_MB.all.mb58.gz 8.79MB Kongsberg multibeam vendor format
0030_20160421_095015_EX1605L1_MB.all.mb58.gz 80.61MB Kongsberg multibeam vendor format
0031_20160421_105011_EX1605L1_MB.all.mb58.gz 82.93MB Kongsberg multibeam vendor format
0032_20160421_115014_EX1605L1_MB.all.mb58.gz 119.45MB Kongsberg multibeam vendor format
0033_20160421_125011_EX1605L1_MB.all.mb58.gz 47.61MB Kongsberg multibeam vendor format
0034_20160421_131243_EX1605L1_MB.all.mb58.gz 84.43MB Kongsberg multibeam vendor format
0035_20160421_141235_EX1605L1_MB.all.mb58.gz 86.65MB Kongsberg multibeam vendor format
0036_20160421_151239_EX1605L1_MB.all.mb58.gz 17.88MB Kongsberg multibeam vendor format
0037_20160421_152135_EX1605L1_MB.all.mb58.gz 3.88MB Kongsberg multibeam vendor format
0038_20160421_152328_EX1605L1_MB.all.mb58.gz 24.83MB Kongsberg multibeam vendor format
0039_20160421_153344_EX1605L1_MB.all.mb58.gz 17.72MB Kongsberg multibeam vendor format
0040_20160421_154058_EX1605L1_MB.all.mb58.gz 120.45MB Kongsberg multibeam vendor format
0041_20160421_164057_EX1605L1_MB.all.mb58.gz 118.86MB Kongsberg multibeam vendor format
0042_20160421_172741_EX1605L1_MB.all.mb58.gz 8.77MB Kongsberg multibeam vendor format
0043_20160421_173411_EX1605L1_MB.all.mb58.gz 44.01MB Kongsberg multibeam vendor format
0044_20160421_175859_EX1605L1_MB.all.mb58.gz 5.16MB Kongsberg multibeam vendor format
0045_20160421_180241_EX1605L1_MB.all.mb58.gz 23.30MB Kongsberg multibeam vendor format
0046_20160421_181334_EX1605L1_MB.all.mb58.gz 4.55MB Kongsberg multibeam vendor format
0047_20160421_181510_EX1605L1_MB.all.mb58.gz 11.45MB Kongsberg multibeam vendor format
0048_20160421_182000_EX1605L1_MB.all.mb58.gz 329.3KB Kongsberg multibeam vendor format
0049_20160422_052354_EX1605L1_MB.all.mb58.gz 96.23MB Kongsberg multibeam vendor format
0050_20160422_061255_EX1605L1_MB.all.mb58.gz 8.04MB Kongsberg multibeam vendor format
0051_20160422_061828_EX1605L1_MB.all.mb58.gz 49.84MB Kongsberg multibeam vendor format
0052_20160422_064125_EX1605L1_MB.all.mb58.gz 136.80MB Kongsberg multibeam vendor format
0053_20160422_074122_EX1605L1_MB.all.mb58.gz 37.74MB Kongsberg multibeam vendor format
0054_20160422_075738_EX1605L1_MB.all.mb58.gz 134.87MB Kongsberg multibeam vendor format
0055_20160422_085738_EX1605L1_MB.all.mb58.gz 102.55MB Kongsberg multibeam vendor format
0056_20160422_095737_EX1605L1_MB.all.mb58.gz 83.84MB Kongsberg multibeam vendor format
0057_20160422_103756_EX1605L1_MB.all.mb58.gz 8.90MB Kongsberg multibeam vendor format
0058_20160422_104112_EX1605L1_MB.all.mb58.gz 0.86MB Kongsberg multibeam vendor format
0059_20160422_104131_EX1605L1_MB.all.mb58.gz 138.01MB Kongsberg multibeam vendor format
0060_20160422_114131_EX1605L1_MB.all.mb58.gz 115.48MB Kongsberg multibeam vendor format
0061_20160422_124133_EX1605L1_MB.all.mb58.gz 56.30MB Kongsberg multibeam vendor format
0062_20160422_130646_EX1605L1_MB.all.mb58.gz 25.47MB Kongsberg multibeam vendor format
0063_20160422_131822_EX1605L1_MB.all.mb58.gz 119.39MB Kongsberg multibeam vendor format
0064_20160422_141509_EX1605L1_MB.all.mb58.gz 30.39MB Kongsberg multibeam vendor format
0065_20160422_142938_EX1605L1_MB.all.mb58.gz 44.47MB Kongsberg multibeam vendor format
0066_20160422_144912_EX1605L1_MB.all.mb58.gz 8.06MB Kongsberg multibeam vendor format
0067_20160422_145242_EX1605L1_MB.all.mb58.gz 44.35MB Kongsberg multibeam vendor format
0068_20160422_151144_EX1605L1_MB.all.mb58.gz 96.80MB Kongsberg multibeam vendor format
0069_20160422_161148_EX1605L1_MB.all.mb58.gz 71.94MB Kongsberg multibeam vendor format
0070_20160422_171144_EX1605L1_MB.all.mb58.gz 28.17MB Kongsberg multibeam vendor format
0071_20160422_173717_EX1605L1_MB.all.mb58.gz 50.98MB Kongsberg multibeam vendor format
0072_20160422_182331_EX1605L1_MB.all.mb58.gz 21.56MB Kongsberg multibeam vendor format
0073_20160423_070307_EX1605L1_MB.all.mb58.gz 65.85MB Kongsberg multibeam vendor format
0074_20160423_080314_EX1605L1_MB.all.mb58.gz 44.89MB Kongsberg multibeam vendor format
0075_20160423_084448_EX1605L1_MB.all.mb58.gz 63.50MB Kongsberg multibeam vendor format
0076_20160423_094436_EX1605L1_MB.all.mb58.gz 2.53MB Kongsberg multibeam vendor format
0077_20160423_094659_EX1605L1_MB.all.mb58.gz 60.41MB Kongsberg multibeam vendor format
0078_20160423_104659_EX1605L1_MB.all.mb58.gz 62.37MB Kongsberg multibeam vendor format
0079_20160423_114659_EX1605L1_MB.all.mb58.gz 63.79MB Kongsberg multibeam vendor format
0080_20160423_124653_EX1605L1_MB.all.mb58.gz 64.60MB Kongsberg multibeam vendor format
0081_20160423_134652_EX1605L1_MB.all.mb58.gz 36.76MB Kongsberg multibeam vendor format
0082_20160423_142051_EX1605L1_MB.all.mb58.gz 69.26MB Kongsberg multibeam vendor format
0083_20160423_152057_EX1605L1_MB.all.mb58.gz 12.90MB Kongsberg multibeam vendor format
0084_20160423_153238_EX1605L1_MB.all.mb58.gz 2.95MB Kongsberg multibeam vendor format
0085_20160423_153518_EX1605L1_MB.all.mb58.gz 20.05MB Kongsberg multibeam vendor format
0086_20160423_155323_EX1605L1_MB.all.mb58.gz 10.14MB Kongsberg multibeam vendor format
0087_20160423_160230_EX1605L1_MB.all.mb58.gz 73.77MB Kongsberg multibeam vendor format
0088_20160423_170231_EX1605L1_MB.all.mb58.gz 4.44MB Kongsberg multibeam vendor format
0089_20160423_170633_EX1605L1_MB.all.mb58.gz 22.52MB Kongsberg multibeam vendor format
0090_20160423_172718_EX1605L1_MB.all.mb58.gz 38.51MB Kongsberg multibeam vendor format
0091_20160423_180214_EX1605L1_MB.all.mb58.gz 17.41MB Kongsberg multibeam vendor format
0092_20160423_181805_EX1605L1_MB.all.mb58.gz 1.51MB Kongsberg multibeam vendor format
0093_20160424_185448_EX1605L1_MB.all.mb58.gz 5.44MB Kongsberg multibeam vendor format
0094_20160425_040343_EX1605L1_MB.all.mb58.gz 32.91MB Kongsberg multibeam vendor format
0095_20160425_043356_EX1605L1_MB.all.mb58.gz 64.89MB Kongsberg multibeam vendor format
0096_20160425_053401_EX1605L1_MB.all.mb58.gz 65.18MB Kongsberg multibeam vendor format
0097_20160425_063400_EX1605L1_MB.all.mb58.gz 64.05MB Kongsberg multibeam vendor format
0098_20160425_073359_EX1605L1_MB.all.mb58.gz 59.32MB Kongsberg multibeam vendor format
0099_20160425_083358_EX1605L1_MB.all.mb58.gz 61.83MB Kongsberg multibeam vendor format
0100_20160425_093358_EX1605L1_MB.all.mb58.gz 63.46MB Kongsberg multibeam vendor format
0101_20160425_103354_EX1605L1_MB.all.mb58.gz 64.77MB Kongsberg multibeam vendor format
0102_20160425_113400_EX1605L1_MB.all.mb58.gz 67.27MB Kongsberg multibeam vendor format
0103_20160425_123355_EX1605L1_MB.all.mb58.gz 63.53MB Kongsberg multibeam vendor format
0104_20160425_133103_EX1605L1_MB.all.mb58.gz 66.44MB Kongsberg multibeam vendor format
0105_20160425_143055_EX1605L1_MB.all.mb58.gz 18.27MB Kongsberg multibeam vendor format
0106_20160425_144528_EX1605L1_MB.all.mb58.gz 59.44MB Kongsberg multibeam vendor format
0107_20160425_173214_EX1605L1_MB.all.mb58.gz 25.34MB Kongsberg multibeam vendor format
0108_20160425_175135_EX1605L1_MB.all.mb58.gz 77.28MB Kongsberg multibeam vendor format
0109_20160425_185135_EX1605L1_MB.all.mb58.gz 5.39MB Kongsberg multibeam vendor format
0110_20160425_185617_EX1605L1_MB.all.mb58.gz 8.20MB Kongsberg multibeam vendor format
0111_20160425_190238_EX1605L1_MB.all.mb58.gz 9.47MB Kongsberg multibeam vendor format
0112_20160426_072819_EX1605L1_MB.all.mb58.gz 20.90MB Kongsberg multibeam vendor format
0113_20160426_074426_EX1605L1_MB.all.mb58.gz 70.55MB Kongsberg multibeam vendor format
0114_20160426_084418_EX1605L1_MB.all.mb58.gz 42.02MB Kongsberg multibeam vendor format
0115_20160426_091628_EX1605L1_MB.all.mb58.gz 2.80MB Kongsberg multibeam vendor format
0116_20160426_091838_EX1605L1_MB.all.mb58.gz 10.62MB Kongsberg multibeam vendor format
0117_20160426_092653_EX1605L1_MB.all.mb58.gz 2.32MB Kongsberg multibeam vendor format
0118_20160426_092842_EX1605L1_MB.all.mb58.gz 68.63MB Kongsberg multibeam vendor format
0119_20160426_102148_EX1605L1_MB.all.mb58.gz 2.47MB Kongsberg multibeam vendor format
0120_20160426_102341_EX1605L1_MB.all.mb58.gz 9.84MB Kongsberg multibeam vendor format
0121_20160426_103120_EX1605L1_MB.all.mb58.gz 3.02MB Kongsberg multibeam vendor format
0122_20160426_103341_EX1605L1_MB.all.mb58.gz 25.29MB Kongsberg multibeam vendor format
0123_20160426_105322_EX1605L1_MB.all.mb58.gz 2.36MB Kongsberg multibeam vendor format
0124_20160426_105511_EX1605L1_MB.all.mb58.gz 35.37MB Kongsberg multibeam vendor format
0125_20160426_112214_EX1605L1_MB.all.mb58.gz 2.52MB Kongsberg multibeam vendor format
0126_20160426_112411_EX1605L1_MB.all.mb58.gz 9.44MB Kongsberg multibeam vendor format
0127_20160426_113129_EX1605L1_MB.all.mb58.gz 2.39MB Kongsberg multibeam vendor format
0128_20160426_113321_EX1605L1_MB.all.mb58.gz 42.90MB Kongsberg multibeam vendor format
0129_20160426_120626_EX1605L1_MB.all.mb58.gz 70.67MB Kongsberg multibeam vendor format
0130_20160426_130627_EX1605L1_MB.all.mb58.gz 36.38MB Kongsberg multibeam vendor format
0131_20160426_133615_EX1605L1_MB.all.mb58.gz 6.80MB Kongsberg multibeam vendor format
0132_20160426_134133_EX1605L1_MB.all.mb58.gz 68.15MB Kongsberg multibeam vendor format
0133_20160426_144134_EX1605L1_MB.all.mb58.gz 38.93MB Kongsberg multibeam vendor format
0134_20160426_151856_EX1605L1_MB.all.mb58.gz 3.07MB Kongsberg multibeam vendor format
0135_20160426_195251_EX1605L1_MB.all.mb58.gz 6.33MB Kongsberg multibeam vendor format
0136_20160426_195745_EX1605L1_MB.all.mb58.gz 29.30MB Kongsberg multibeam vendor format
0137_20160426_201954_EX1605L1_MB.all.mb58.gz 17.68MB Kongsberg multibeam vendor format
0138_20160427_072026_EX1605L1_MB.all.mb58.gz 76.14MB Kongsberg multibeam vendor format
0139_20160427_082025_EX1605L1_MB.all.mb58.gz 3.17MB Kongsberg multibeam vendor format
0140_20160427_082315_EX1605L1_MB.all.mb58.gz 66.80MB Kongsberg multibeam vendor format
0141_20160427_092308_EX1605L1_MB.all.mb58.gz 66.55MB Kongsberg multibeam vendor format
0142_20160427_102306_EX1605L1_MB.all.mb58.gz 67.87MB Kongsberg multibeam vendor format
0143_20160427_112310_EX1605L1_MB.all.mb58.gz 17.24MB Kongsberg multibeam vendor format
0144_20160427_113614_EX1605L1_MB.all.mb58.gz 1.68MB Kongsberg multibeam vendor format
0145_20160427_113729_EX1605L1_MB.all.mb58.gz 84.31MB Kongsberg multibeam vendor format
0146_20160427_123730_EX1605L1_MB.all.mb58.gz 7.27MB Kongsberg multibeam vendor format
0147_20160427_125000_EX1605L1_MB.all.mb58.gz 13.62MB Kongsberg multibeam vendor format
0148_20160427_125933_EX1605L1_MB.all.mb58.gz 2.90MB Kongsberg multibeam vendor format
0149_20160427_130136_EX1605L1_MB.all.mb58.gz 85.95MB Kongsberg multibeam vendor format
0150_20160427_140138_EX1605L1_MB.all.mb58.gz 18.22MB Kongsberg multibeam vendor format
0151_20160427_141447_EX1605L1_MB.all.mb58.gz 1.86MB Kongsberg multibeam vendor format
0152_20160427_141610_EX1605L1_MB.all.mb58.gz 71.59MB Kongsberg multibeam vendor format
0153_20160427_151613_EX1605L1_MB.all.mb58.gz 66.54MB Kongsberg multibeam vendor format
0154_20160427_161608_EX1605L1_MB.all.mb58.gz 66.81MB Kongsberg multibeam vendor format
0155_20160427_171613_EX1605L1_MB.all.mb58.gz 61.90MB Kongsberg multibeam vendor format
0156_20160427_180755_EX1605L1_MB.all.mb58.gz 13.46MB Kongsberg multibeam vendor format
0157_20160428_052537_EX1605L1_MB.all.mb58.gz 71.02MB Kongsberg multibeam vendor format
0158_20160428_062540_EX1605L1_MB.all.mb58.gz 25.77MB Kongsberg multibeam vendor format
0159_20160428_064655_EX1605L1_MB.all.mb58.gz 26.19MB Kongsberg multibeam vendor format
0160_20160428_070721_EX1605L1_MB.all.mb58.gz 3.64MB Kongsberg multibeam vendor format
0161_20160428_071010_EX1605L1_MB.all.mb58.gz 72.49MB Kongsberg multibeam vendor format
0162_20160428_081014_EX1605L1_MB.all.mb58.gz 70.55MB Kongsberg multibeam vendor format
0163_20160428_091010_EX1605L1_MB.all.mb58.gz 71.65MB Kongsberg multibeam vendor format
0164_20160428_101010_EX1605L1_MB.all.mb58.gz 72.89MB Kongsberg multibeam vendor format
0165_20160428_111011_EX1605L1_MB.all.mb58.gz 66.73MB Kongsberg multibeam vendor format
0166_20160428_121009_EX1605L1_MB.all.mb58.gz 67.84MB Kongsberg multibeam vendor format
0167_20160428_131008_EX1605L1_MB.all.mb58.gz 87.67MB Kongsberg multibeam vendor format
0168_20160428_141011_EX1605L1_MB.all.mb58.gz 73.80MB Kongsberg multibeam vendor format
0169_20160428_151009_EX1605L1_MB.all.mb58.gz 66.95MB Kongsberg multibeam vendor format
0170_20160428_161006_EX1605L1_MB.all.mb58.gz 74.64MB Kongsberg multibeam vendor format
0172_20160428_171013_EX1605L1_MB.all.mb58.gz 12.24MB Kongsberg multibeam vendor format
0173_20160428_171915_EX1605L1_MB.all.mb58.gz 62.46MB Kongsberg multibeam vendor format
0174_20160428_180356_EX1605L1_MB.all.mb58.gz 22.68MB Kongsberg multibeam vendor format
0175_20160429_054245_EX1605L1_MB.all.mb58.gz 70.33MB Kongsberg multibeam vendor format
0176_20160429_064251_EX1605L1_MB.all.mb58.gz 66.65MB Kongsberg multibeam vendor format
0177_20160429_074251_EX1605L1_MB.all.mb58.gz 66.77MB Kongsberg multibeam vendor format
0178_20160429_084244_EX1605L1_MB.all.mb58.gz 68.01MB Kongsberg multibeam vendor format
0179_20160429_094251_EX1605L1_MB.all.mb58.gz 68.38MB Kongsberg multibeam vendor format
0180_20160429_104248_EX1605L1_MB.all.mb58.gz 36.04MB Kongsberg multibeam vendor format
0181_20160429_111528_EX1605L1_MB.all.mb58.gz 5.46MB Kongsberg multibeam vendor format
0182_20160429_112022_EX1605L1_MB.all.mb58.gz 46.10MB Kongsberg multibeam vendor format
0183_20160429_120147_EX1605L1_MB.all.mb58.gz 50.72MB Kongsberg multibeam vendor format
0184_20160429_124803_EX1605L1_MB.all.mb58.gz 23.12MB Kongsberg multibeam vendor format
0185_20160429_130907_EX1605L1_MB.all.mb58.gz 52.13MB Kongsberg multibeam vendor format
0186_20160429_135550_EX1605L1_MB.all.mb58.gz 5.71MB Kongsberg multibeam vendor format
0187_20160429_140013_EX1605L1_MB.all.mb58.gz 68.61MB Kongsberg multibeam vendor format
0188_20160429_150018_EX1605L1_MB.all.mb58.gz 66.47MB Kongsberg multibeam vendor format
0189_20160429_160013_EX1605L1_MB.all.mb58.gz 66.64MB Kongsberg multibeam vendor format
0190_20160429_170013_EX1605L1_MB.all.mb58.gz 66.22MB Kongsberg multibeam vendor format
0191_20160429_180014_EX1605L1_MB.all.mb58.gz 15.85MB Kongsberg multibeam vendor format
0192_20160430_071717_EX1605L1_MB.all.mb58.gz 68.19MB Kongsberg multibeam vendor format
0193_20160430_081713_EX1605L1_MB.all.mb58.gz 67.10MB Kongsberg multibeam vendor format
0194_20160430_091711_EX1605L1_MB.all.mb58.gz 57.29MB Kongsberg multibeam vendor format
0195_20160430_100824_EX1605L1_MB.all.mb58.gz 66.80MB Kongsberg multibeam vendor format
0196_20160430_110810_EX1605L1_MB.all.mb58.gz 66.56MB Kongsberg multibeam vendor format
0197_20160430_120810_EX1605L1_MB.all.mb58.gz 66.73MB Kongsberg multibeam vendor format
0198_20160430_130812_EX1605L1_MB.all.mb58.gz 66.54MB Kongsberg multibeam vendor format
0199_20160430_140811_EX1605L1_MB.all.mb58.gz 66.87MB Kongsberg multibeam vendor format
0200_20160430_150812_EX1605L1_MB.all.mb58.gz 66.85MB Kongsberg multibeam vendor format
0201_20160430_160807_EX1605L1_MB.all.mb58.gz 53.96MB Kongsberg multibeam vendor format
0202_20160430_165644_EX1605L1_MB.all.mb58.gz 3.81MB Kongsberg multibeam vendor format
0203_20160430_170010_EX1605L1_MB.all.mb58.gz 14.56MB Kongsberg multibeam vendor format
0204_20160430_171322_EX1605L1_MB.all.mb58.gz 4.56MB Kongsberg multibeam vendor format
0205_20160430_171729_EX1605L1_MB.all.mb58.gz 14.61MB Kongsberg multibeam vendor format
0206_20160430_173040_EX1605L1_MB.all.mb58.gz 50.16MB Kongsberg multibeam vendor format
0207_20160501_072622_EX1605L1_MB.all.mb58.gz 66.07MB Kongsberg multibeam vendor format
0208_20160501_082623_EX1605L1_MB.all.mb58.gz 65.95MB Kongsberg multibeam vendor format
0209_20160501_092625_EX1605L1_MB.all.mb58.gz 66.18MB Kongsberg multibeam vendor format
0210_20160501_102621_EX1605L1_MB.all.mb58.gz 61.81MB Kongsberg multibeam vendor format
0211_20160501_112130_EX1605L1_MB.all.mb58.gz 1.03MB Kongsberg multibeam vendor format
0212_20160501_112225_EX1605L1_MB.all.mb58.gz 61.50MB Kongsberg multibeam vendor format
0213_20160501_121721_EX1605L1_MB.all.mb58.gz 66.92MB Kongsberg multibeam vendor format
0214_20160501_131714_EX1605L1_MB.all.mb58.gz 67.02MB Kongsberg multibeam vendor format
0215_20160501_141715_EX1605L1_MB.all.mb58.gz 39.22MB Kongsberg multibeam vendor format
0216_20160501_145222_EX1605L1_MB.all.mb58.gz 67.32MB Kongsberg multibeam vendor format
0217_20160501_155219_EX1605L1_MB.all.mb58.gz 67.04MB Kongsberg multibeam vendor format
0218_20160501_165222_EX1605L1_MB.all.mb58.gz 66.50MB Kongsberg multibeam vendor format
0219_20160501_175220_EX1605L1_MB.all.mb58.gz 28.88MB Kongsberg multibeam vendor format
0220_20160502_065633_EX1605L1_MB.all.mb58.gz 14.75MB Kongsberg multibeam vendor format
0221_20160502_071918_EX1605L1_MB.all.mb58.gz 67.52MB Kongsberg multibeam vendor format
0222_20160502_081917_EX1605L1_MB.all.mb58.gz 25.08MB Kongsberg multibeam vendor format
0223_20160502_084136_EX1605L1_MB.all.mb58.gz 4.47MB Kongsberg multibeam vendor format
0224_20160502_084535_EX1605L1_MB.all.mb58.gz 8.29MB Kongsberg multibeam vendor format
0225_20160502_085257_EX1605L1_MB.all.mb58.gz 1.18MB Kongsberg multibeam vendor format
0226_20160502_085400_EX1605L1_MB.all.mb58.gz 19.19MB Kongsberg multibeam vendor format
0227_20160502_091100_EX1605L1_MB.all.mb58.gz 3.81MB Kongsberg multibeam vendor format
0228_20160502_091423_EX1605L1_MB.all.mb58.gz 20.52MB Kongsberg multibeam vendor format
0229_20160502_093236_EX1605L1_MB.all.mb58.gz 4.11MB Kongsberg multibeam vendor format
0230_20160502_093615_EX1605L1_MB.all.mb58.gz 22.71MB Kongsberg multibeam vendor format
0231_20160502_095624_EX1605L1_MB.all.mb58.gz 6.92MB Kongsberg multibeam vendor format
0232_20160502_100232_EX1605L1_MB.all.mb58.gz 19.39MB Kongsberg multibeam vendor format
0233_20160502_101945_EX1605L1_MB.all.mb58.gz 4.87MB Kongsberg multibeam vendor format
0234_20160502_102405_EX1605L1_MB.all.mb58.gz 19.04MB Kongsberg multibeam vendor format
0235_20160502_104059_EX1605L1_MB.all.mb58.gz 68.82MB Kongsberg multibeam vendor format
0236_20160502_114053_EX1605L1_MB.all.mb58.gz 49.67MB Kongsberg multibeam vendor format
0237_20160502_122525_EX1605L1_MB.all.mb58.gz 67.05MB Kongsberg multibeam vendor format
0238_20160502_132525_EX1605L1_MB.all.mb58.gz 67.17MB Kongsberg multibeam vendor format
0239_20160502_142521_EX1605L1_MB.all.mb58.gz 70.91MB Kongsberg multibeam vendor format
0240_20160502_152524_EX1605L1_MB.all.mb58.gz 80.07MB Kongsberg multibeam vendor format
0241_20160502_162518_EX1605L1_MB.all.mb58.gz 82.11MB Kongsberg multibeam vendor format
0242_20160502_172519_EX1605L1_MB.all.mb58.gz 75.96MB Kongsberg multibeam vendor format
0243_20160503_052545_EX1605L1_MB.all.mb58.gz 84.53MB Kongsberg multibeam vendor format
0244_20160503_062547_EX1605L1_MB.all.mb58.gz 58.93MB Kongsberg multibeam vendor format
0245_20160503_070341_EX1605L1_MB.all.mb58.gz 125.92MB Kongsberg multibeam vendor format
0246_20160503_080341_EX1605L1_MB.all.mb58.gz 79.26MB Kongsberg multibeam vendor format
0247_20160503_090346_EX1605L1_MB.all.mb58.gz 68.22MB Kongsberg multibeam vendor format
0248_20160503_100346_EX1605L1_MB.all.mb58.gz 67.43MB Kongsberg multibeam vendor format
0249_20160503_110343_EX1605L1_MB.all.mb58.gz 66.62MB Kongsberg multibeam vendor format
0250_20160503_120341_EX1605L1_MB.all.mb58.gz 66.12MB Kongsberg multibeam vendor format
0251_20160503_130349_EX1605L1_MB.all.mb58.gz 65.50MB Kongsberg multibeam vendor format
0252_20160503_140344_EX1605L1_MB.all.mb58.gz 65.61MB Kongsberg multibeam vendor format
0253_20160503_150349_EX1605L1_MB.all.mb58.gz 16.72MB Kongsberg multibeam vendor format
0254_20160503_151856_EX1605L1_MB.all.mb58.gz 1.65MB Kongsberg multibeam vendor format
0255_20160503_152025_EX1605L1_MB.all.mb58.gz 32.69MB Kongsberg multibeam vendor format
0256_20160503_154952_EX1605L1_MB.all.mb58.gz 8.06MB Kongsberg multibeam vendor format
0257_20160503_155712_EX1605L1_MB.all.mb58.gz 34.10MB Kongsberg multibeam vendor format
0258_20160503_162800_EX1605L1_MB.all.mb58.gz 6.01MB Kongsberg multibeam vendor format
0259_20160503_163325_EX1605L1_MB.all.mb58.gz 11.69MB Kongsberg multibeam vendor format
0260_20160503_164357_EX1605L1_MB.all.mb58.gz 9.70MB Kongsberg multibeam vendor format
0261_20160503_165242_EX1605L1_MB.all.mb58.gz 22.63MB Kongsberg multibeam vendor format
0262_20160503_171306_EX1605L1_MB.all.mb58.gz 8.22MB Kongsberg multibeam vendor format
0263_20160503_172031_EX1605L1_MB.all.mb58.gz 27.69MB Kongsberg multibeam vendor format
0264_20160503_174529_EX1605L1_MB.all.mb58.gz 7.55MB Kongsberg multibeam vendor format
0265_20160503_175217_EX1605L1_MB.all.mb58.gz 18.28MB Kongsberg multibeam vendor format
0266_20160503_180845_EX1605L1_MB.all.mb58.gz 5.99MB Kongsberg multibeam vendor format
0267_20160503_181409_EX1605L1_MB.all.mb58.gz 8.54MB Kongsberg multibeam vendor format
0268_20160504_054355_EX1605L1_MB.all.mb58.gz 66.19MB Kongsberg multibeam vendor format
0269_20160504_064355_EX1605L1_MB.all.mb58.gz 65.32MB Kongsberg multibeam vendor format
0270_20160504_074357_EX1605L1_MB.all.mb58.gz 65.35MB Kongsberg multibeam vendor format
0271_20160504_084356_EX1605L1_MB.all.mb58.gz 65.25MB Kongsberg multibeam vendor format
0272_20160504_094354_EX1605L1_MB.all.mb58.gz 63.62MB Kongsberg multibeam vendor format
0273_20160504_104354_EX1605L1_MB.all.mb58.gz 63.48MB Kongsberg multibeam vendor format
0274_20160504_114353_EX1605L1_MB.all.mb58.gz 63.28MB Kongsberg multibeam vendor format
0275_20160504_124351_EX1605L1_MB.all.mb58.gz 62.44MB Kongsberg multibeam vendor format
0276_20160504_134352_EX1605L1_MB.all.mb58.gz 63.93MB Kongsberg multibeam vendor format
0277_20160504_144357_EX1605L1_MB.all.mb58.gz 67.92MB Kongsberg multibeam vendor format
0278_20160504_154350_EX1605L1_MB.all.mb58.gz 69.41MB Kongsberg multibeam vendor format
0279_20160504_164352_EX1605L1_MB.all.mb58.gz 68.96MB Kongsberg multibeam vendor format
0280_20160504_174353_EX1605L1_MB.all.mb58.gz 68.12MB Kongsberg multibeam vendor format
0281_20160504_184350_EX1605L1_MB.all.mb58.gz 53.20MB Kongsberg multibeam vendor format
0282_20160504_192847_EX1605L1_MB.all.mb58.gz 26.09MB Kongsberg multibeam vendor format
0283_20160505_053012_EX1605L1_MB.all.mb58.gz 79.62MB Kongsberg multibeam vendor format
0284_20160505_063009_EX1605L1_MB.all.mb58.gz 22.88MB Kongsberg multibeam vendor format
0285_20160505_065026_EX1605L1_MB.all.mb58.gz 6.05MB Kongsberg multibeam vendor format
0286_20160505_065546_EX1605L1_MB.all.mb58.gz 62.59MB Kongsberg multibeam vendor format
0287_20160505_075028_EX1605L1_MB.all.mb58.gz 72.05MB Kongsberg multibeam vendor format
0288_20160505_085023_EX1605L1_MB.all.mb58.gz 72.35MB Kongsberg multibeam vendor format
0289_20160505_095025_EX1605L1_MB.all.mb58.gz 30.77MB Kongsberg multibeam vendor format
0290_20160505_101547_EX1605L1_MB.all.mb58.gz 1.92MB Kongsberg multibeam vendor format
0291_20160505_101729_EX1605L1_MB.all.mb58.gz 66.28MB Kongsberg multibeam vendor format
0292_20160505_111728_EX1605L1_MB.all.mb58.gz 66.14MB Kongsberg multibeam vendor format
0293_20160505_121728_EX1605L1_MB.all.mb58.gz 76.73MB Kongsberg multibeam vendor format
0294_20160505_131734_EX1605L1_MB.all.mb58.gz 70.75MB Kongsberg multibeam vendor format
0295_20160505_141737_EX1605L1_MB.all.mb58.gz 65.61MB Kongsberg multibeam vendor format
0296_20160505_151732_EX1605L1_MB.all.mb58.gz 66.15MB Kongsberg multibeam vendor format
0297_20160505_161737_EX1605L1_MB.all.mb58.gz 18.36MB Kongsberg multibeam vendor format
0298_20160505_163416_EX1605L1_MB.all.mb58.gz 5.18MB Kongsberg multibeam vendor format
0299_20160505_163902_EX1605L1_MB.all.mb58.gz 71.55MB Kongsberg multibeam vendor format
0300_20160505_173901_EX1605L1_MB.all.mb58.gz 5.34MB Kongsberg multibeam vendor format
0301_20160505_174338_EX1605L1_MB.all.mb58.gz 35.86MB Kongsberg multibeam vendor format
0302_20160506_054055_EX1605L1_MB.all.mb58.gz 47.58MB Kongsberg multibeam vendor format
0303_20160506_062003_EX1605L1_MB.all.mb58.gz 10.25MB Kongsberg multibeam vendor format
0304_20160506_062831_EX1605L1_MB.all.mb58.gz 75.34MB Kongsberg multibeam vendor format
0305_20160506_072833_EX1605L1_MB.all.mb58.gz 60.94MB Kongsberg multibeam vendor format
0306_20160506_082413_EX1605L1_MB.all.mb58.gz 66.23MB Kongsberg multibeam vendor format
0307_20160506_092408_EX1605L1_MB.all.mb58.gz 81.70MB Kongsberg multibeam vendor format
0308_20160506_102408_EX1605L1_MB.all.mb58.gz 68.68MB Kongsberg multibeam vendor format
0309_20160506_111641_EX1605L1_MB.all.mb58.gz 1.70MB Kongsberg multibeam vendor format
0310_20160506_111813_EX1605L1_MB.all.mb58.gz 66.18MB Kongsberg multibeam vendor format
0311_20160506_121817_EX1605L1_MB.all.mb58.gz 65.88MB Kongsberg multibeam vendor format
0312_20160506_131817_EX1605L1_MB.all.mb58.gz 31.14MB Kongsberg multibeam vendor format
0313_20160506_134613_EX1605L1_MB.all.mb58.gz 4.10MB Kongsberg multibeam vendor format
0314_20160506_134925_EX1605L1_MB.all.mb58.gz 43.27MB Kongsberg multibeam vendor format
0315_20160506_142239_EX1605L1_MB.all.mb58.gz 6.39MB Kongsberg multibeam vendor format
0316_20160506_142735_EX1605L1_MB.all.mb58.gz 28.63MB Kongsberg multibeam vendor format
0317_20160506_144921_EX1605L1_MB.all.mb58.gz 6.62MB Kongsberg multibeam vendor format
0318_20160506_145421_EX1605L1_MB.all.mb58.gz 80.42MB Kongsberg multibeam vendor format
0319_20160506_155417_EX1605L1_MB.all.mb58.gz 54.91MB Kongsberg multibeam vendor format
0320_20160506_163535_EX1605L1_MB.all.mb58.gz 6.79MB Kongsberg multibeam vendor format
0321_20160506_164053_EX1605L1_MB.all.mb58.gz 79.24MB Kongsberg multibeam vendor format
0322_20160506_174046_EX1605L1_MB.all.mb58.gz 43.44MB Kongsberg multibeam vendor format
0323_20160507_032518_EX1605L1_MB.all.mb58.gz 76.17MB Kongsberg multibeam vendor format
0324_20160507_042526_EX1605L1_MB.all.mb58.gz 65.87MB Kongsberg multibeam vendor format
0325_20160507_052524_EX1605L1_MB.all.mb58.gz 65.53MB Kongsberg multibeam vendor format
0326_20160507_062527_EX1605L1_MB.all.mb58.gz 65.57MB Kongsberg multibeam vendor format
0327_20160507_072524_EX1605L1_MB.all.mb58.gz 64.91MB Kongsberg multibeam vendor format
0328_20160507_082526_EX1605L1_MB.all.mb58.gz 6.08MB Kongsberg multibeam vendor format
0329_20160507_083102_EX1605L1_MB.all.mb58.gz 55.09MB Kongsberg multibeam vendor format
0330_20160507_092100_EX1605L1_MB.all.mb58.gz 66.69MB Kongsberg multibeam vendor format
0331_20160507_102050_EX1605L1_MB.all.mb58.gz 66.16MB Kongsberg multibeam vendor format
0332_20160507_112051_EX1605L1_MB.all.mb58.gz 65.75MB Kongsberg multibeam vendor format
0333_20160507_122058_EX1605L1_MB.all.mb58.gz 65.23MB Kongsberg multibeam vendor format
0334_20160507_132049_EX1605L1_MB.all.mb58.gz 65.85MB Kongsberg multibeam vendor format
0335_20160507_142057_EX1605L1_MB.all.mb58.gz 66.03MB Kongsberg multibeam vendor format
0336_20160507_152050_EX1605L1_MB.all.mb58.gz 67.12MB Kongsberg multibeam vendor format
0337_20160507_162056_EX1605L1_MB.all.mb58.gz 78.77MB Kongsberg multibeam vendor format
0338_20160507_172052_EX1605L1_MB.all.mb58.gz 95.32MB Kongsberg multibeam vendor format
0339_20160507_181043_EX1605L1_MB.all.mb58.gz 27.16MB Kongsberg multibeam vendor format
0340_20160508_052217_EX1605L1_MB.all.mb58.gz 27.35MB Kongsberg multibeam vendor format
0341_20160508_053339_EX1605L1_MB.all.mb58.gz 73.50MB Kongsberg multibeam vendor format
0342_20160508_060702_EX1605L1_MB.all.mb58.gz 34.50MB Kongsberg multibeam vendor format
0343_20160508_063133_EX1605L1_MB.all.mb58.gz 87.86MB Kongsberg multibeam vendor format
0344_20160508_071649_EX1605L1_MB.all.mb58.gz 20.38MB Kongsberg multibeam vendor format
0345_20160508_072953_EX1605L1_MB.all.mb58.gz 83.95MB Kongsberg multibeam vendor format
0346_20160508_081407_EX1605L1_MB.all.mb58.gz 25.54MB Kongsberg multibeam vendor format
0347_20160508_083040_EX1605L1_MB.all.mb58.gz 22.00MB Kongsberg multibeam vendor format
0348_20160508_084244_EX1605L1_MB.all.mb58.gz 76.94MB Kongsberg multibeam vendor format
0349_20160508_092115_EX1605L1_MB.all.mb58.gz 98.61MB Kongsberg multibeam vendor format
0350_20160508_102119_EX1605L1_MB.all.mb58.gz 86.89MB Kongsberg multibeam vendor format
0351_20160508_112115_EX1605L1_MB.all.mb58.gz 83.39MB Kongsberg multibeam vendor format
0352_20160508_122118_EX1605L1_MB.all.mb58.gz 81.43MB Kongsberg multibeam vendor format
0353_20160508_132121_EX1605L1_MB.all.mb58.gz 80.84MB Kongsberg multibeam vendor format
0354_20160508_142114_EX1605L1_MB.all.mb58.gz 83.83MB Kongsberg multibeam vendor format
0355_20160508_152117_EX1605L1_MB.all.mb58.gz 90.03MB Kongsberg multibeam vendor format
0356_20160508_162125_EX1605L1_MB.all.mb58.gz 81.88MB Kongsberg multibeam vendor format
0357_20160508_172115_EX1605L1_MB.all.mb58.gz 94.48MB Kongsberg multibeam vendor format
0358_20160508_182114_EX1605L1_MB.all.mb58.gz 9.73MB Kongsberg multibeam vendor format
0359_20160509_053134_EX1605L1_MB.all.mb58.gz 48.47MB Kongsberg multibeam vendor format
0360_20160509_055002_EX1605L1_MB.all.mb58.gz 63.58MB Kongsberg multibeam vendor format
0361_20160509_061406_EX1605L1_MB.all.mb58.gz 18.93MB Kongsberg multibeam vendor format
0362_20160509_062141_EX1605L1_MB.all.mb58.gz 76.17MB Kongsberg multibeam vendor format
0363_20160509_064412_EX1605L1_MB.all.mb58.gz 41.54MB Kongsberg multibeam vendor format
0364_20160509_070142_EX1605L1_MB.all.mb58.gz 89.06MB Kongsberg multibeam vendor format
0365_20160509_072631_EX1605L1_MB.all.mb58.gz 20.22MB Kongsberg multibeam vendor format
0366_20160509_073435_EX1605L1_MB.all.mb58.gz 157.11MB Kongsberg multibeam vendor format
0367_20160509_082658_EX1605L1_MB.all.mb58.gz 63.62MB Kongsberg multibeam vendor format
0368_20160509_085031_EX1605L1_MB.all.mb58.gz 39.24MB Kongsberg multibeam vendor format
0369_20160509_090830_EX1605L1_MB.all.mb58.gz 36.60MB Kongsberg multibeam vendor format
0370_20160509_092341_EX1605L1_MB.all.mb58.gz 175.29MB Kongsberg multibeam vendor format
0371_20160509_101926_EX1605L1_MB.all.mb58.gz 96.13MB Kongsberg multibeam vendor format
0372_20160509_104743_EX1605L1_MB.all.mb58.gz 60.20MB Kongsberg multibeam vendor format
0373_20160509_110951_EX1605L1_MB.all.mb58.gz 51.13MB Kongsberg multibeam vendor format
0374_20160509_113029_EX1605L1_MB.all.mb58.gz 56.90MB Kongsberg multibeam vendor format
0375_20160509_114712_EX1605L1_MB.all.mb58.gz 16.67MB Kongsberg multibeam vendor format
0376_20160509_120028_EX1605L1_MB.all.mb58.gz 103.53MB Kongsberg multibeam vendor format
0377_20160509_123720_EX1605L1_MB.all.mb58.gz 16.30MB Kongsberg multibeam vendor format
0378_20160509_124357_EX1605L1_MB.all.mb58.gz 80.32MB Kongsberg multibeam vendor format
0379_20160509_130659_EX1605L1_MB.all.mb58.gz 118.12MB Kongsberg multibeam vendor format
0380_20160509_133924_EX1605L1_MB.all.mb58.gz 11.99MB Kongsberg multibeam vendor format
0381_20160509_134435_EX1605L1_MB.all.mb58.gz 68.98MB Kongsberg multibeam vendor format
0382_20160509_140509_EX1605L1_MB.all.mb58.gz 16.19MB Kongsberg multibeam vendor format
0383_20160509_141049_EX1605L1_MB.all.mb58.gz 79.72MB Kongsberg multibeam vendor format
0384_20160509_143403_EX1605L1_MB.all.mb58.gz 118.94MB Kongsberg multibeam vendor format
0385_20160509_150941_EX1605L1_MB.all.mb58.gz 27.84MB Kongsberg multibeam vendor format
0386_20160509_152130_EX1605L1_MB.all.mb58.gz 56.25MB Kongsberg multibeam vendor format
0387_20160509_154326_EX1605L1_MB.all.mb58.gz 5.54MB Kongsberg multibeam vendor format
0388_20160509_154602_EX1605L1_MB.all.mb58.gz 29.53MB Kongsberg multibeam vendor format
0389_20160509_155921_EX1605L1_MB.all.mb58.gz 4.86MB Kongsberg multibeam vendor format
0390_20160509_160135_EX1605L1_MB.all.mb58.gz 65.81MB Kongsberg multibeam vendor format
0391_20160509_162727_EX1605L1_MB.all.mb58.gz 5.86MB Kongsberg multibeam vendor format
0392_20160509_162949_EX1605L1_MB.all.mb58.gz 31.12MB Kongsberg multibeam vendor format
0393_20160509_164314_EX1605L1_MB.all.mb58.gz 28.95MB Kongsberg multibeam vendor format
0394_20160509_165533_EX1605L1_MB.all.mb58.gz 94.25MB Kongsberg multibeam vendor format
0395_20160509_172209_EX1605L1_MB.all.mb58.gz 61.59MB Kongsberg multibeam vendor format
0396_20160509_173956_EX1605L1_MB.all.mb58.gz 93.76MB Kongsberg multibeam vendor format
0397_20160510_042944_EX1605L1_MB.all.mb58.gz 115.62MB Kongsberg multibeam vendor format
0398_20160510_052946_EX1605L1_MB.all.mb58.gz 23.70MB Kongsberg multibeam vendor format
0399_20160510_054438_EX1605L1_MB.all.mb58.gz 4.26MB Kongsberg multibeam vendor format
0400_20160510_054718_EX1605L1_MB.all.mb58.gz 55.70MB Kongsberg multibeam vendor format
0401_20160510_062236_EX1605L1_MB.all.mb58.gz 68.75MB Kongsberg multibeam vendor format
0402_20160510_065708_EX1605L1_MB.all.mb58.gz 3.59MB Kongsberg multibeam vendor format
0403_20160510_065847_EX1605L1_MB.all.mb58.gz 54.49MB Kongsberg multibeam vendor format
0404_20160510_071941_EX1605L1_MB.all.mb58.gz 46.58MB Kongsberg multibeam vendor format
0405_20160510_073311_EX1605L1_MB.all.mb58.gz 41.53MB Kongsberg multibeam vendor format
0406_20160510_074622_EX1605L1_MB.all.mb58.gz 60.62MB Kongsberg multibeam vendor format
0407_20160510_080934_EX1605L1_MB.all.mb58.gz 26.31MB Kongsberg multibeam vendor format
0408_20160510_082201_EX1605L1_MB.all.mb58.gz 69.20MB Kongsberg multibeam vendor format
0409_20160510_084918_EX1605L1_MB.all.mb58.gz 15.49MB Kongsberg multibeam vendor format
0410_20160510_085446_EX1605L1_MB.all.mb58.gz 64.13MB Kongsberg multibeam vendor format
0411_20160510_092018_EX1605L1_MB.all.mb58.gz 19.60MB Kongsberg multibeam vendor format
0412_20160510_092935_EX1605L1_MB.all.mb58.gz 51.82MB Kongsberg multibeam vendor format
0413_20160510_095341_EX1605L1_MB.all.mb58.gz 77.28MB Kongsberg multibeam vendor format
0414_20160510_103110_EX1605L1_MB.all.mb58.gz 29.10MB Kongsberg multibeam vendor format
0415_20160510_104517_EX1605L1_MB.all.mb58.gz 17.98MB Kongsberg multibeam vendor format
0416_20160510_105315_EX1605L1_MB.all.mb58.gz 28.11MB Kongsberg multibeam vendor format
0417_20160510_110547_EX1605L1_MB.all.mb58.gz 10.07MB Kongsberg multibeam vendor format
0418_20160510_111011_EX1605L1_MB.all.mb58.gz 34.59MB Kongsberg multibeam vendor format
0419_20160510_112454_EX1605L1_MB.all.mb58.gz 13.94MB Kongsberg multibeam vendor format
0420_20160510_113040_EX1605L1_MB.all.mb58.gz 33.16MB Kongsberg multibeam vendor format
0421_20160510_114420_EX1605L1_MB.all.mb58.gz 12.69MB Kongsberg multibeam vendor format
0422_20160510_114923_EX1605L1_MB.all.mb58.gz 54.72MB Kongsberg multibeam vendor format
0423_20160510_121100_EX1605L1_MB.all.mb58.gz 39.90MB Kongsberg multibeam vendor format
0424_20160510_122627_EX1605L1_MB.all.mb58.gz 14.89MB Kongsberg multibeam vendor format
0425_20160510_123213_EX1605L1_MB.all.mb58.gz 40.88MB Kongsberg multibeam vendor format
0426_20160510_124743_EX1605L1_MB.all.mb58.gz 14.35MB Kongsberg multibeam vendor format
0427_20160510_125250_EX1605L1_MB.all.mb58.gz 43.21MB Kongsberg multibeam vendor format
0428_20160510_130839_EX1605L1_MB.all.mb58.gz 19.25MB Kongsberg multibeam vendor format
0429_20160510_131554_EX1605L1_MB.all.mb58.gz 31.53MB Kongsberg multibeam vendor format
0430_20160510_132708_EX1605L1_MB.all.mb58.gz 13.78MB Kongsberg multibeam vendor format
0431_20160510_133148_EX1605L1_MB.all.mb58.gz 30.82MB Kongsberg multibeam vendor format
0432_20160510_134242_EX1605L1_MB.all.mb58.gz 20.14MB Kongsberg multibeam vendor format
0433_20160510_135003_EX1605L1_MB.all.mb58.gz 18.83MB Kongsberg multibeam vendor format
0434_20160510_135638_EX1605L1_MB.all.mb58.gz 46.71MB Kongsberg multibeam vendor format
0435_20160510_141343_EX1605L1_MB.all.mb58.gz 13.64MB Kongsberg multibeam vendor format
0436_20160510_141937_EX1605L1_MB.all.mb58.gz 47.37MB Kongsberg multibeam vendor format
0437_20160510_143712_EX1605L1_MB.all.mb58.gz 114.81MB Kongsberg multibeam vendor format
0438_20160510_151307_EX1605L1_MB.all.mb58.gz 8.83MB Kongsberg multibeam vendor format
0439_20160510_151555_EX1605L1_MB.all.mb58.gz 53.99MB Kongsberg multibeam vendor format
0440_20160510_152915_EX1605L1_MB.all.mb58.gz 95.83MB Kongsberg multibeam vendor format
0441_20160510_155846_EX1605L1_MB.all.mb58.gz 85.92MB Kongsberg multibeam vendor format
0442_20160510_164513_EX1605L1_MB.all.mb58.gz 3.22MB Kongsberg multibeam vendor format
0443_20160510_164728_EX1605L1_MB.all.mb58.gz 39.55MB Kongsberg multibeam vendor format
0444_20160510_171604_EX1605L1_MB.all.mb58.gz 17.38MB Kongsberg multibeam vendor format
0445_20160510_172841_EX1605L1_MB.all.mb58.gz 81.33MB Kongsberg multibeam vendor format
0446_20160510_182845_EX1605L1_MB.all.mb58.gz 12.97MB Kongsberg multibeam vendor format
0447_20160510_183821_EX1605L1_MB.all.mb58.gz 11.21MB Kongsberg multibeam vendor format
0448_20160510_184636_EX1605L1_MB.all.mb58.gz 52.07MB Kongsberg multibeam vendor format
0449_20160510_192402_EX1605L1_MB.all.mb58.gz 3.46MB Kongsberg multibeam vendor format
0450_20160510_192630_EX1605L1_MB.all.mb58.gz 133.66MB Kongsberg multibeam vendor format
0451_20160510_202627_EX1605L1_MB.all.mb58.gz 89.63MB Kongsberg multibeam vendor format

Full Resolution Bathymetry (processed): 451

Files File Size Description
0000_20160420_010650_EX1605L1_MB.gsf.mb121.gz 10.02MB SAIC Generic Sensor Format (GSF)
0001_20160420_020651_EX1605L1_MB.gsf.mb121.gz 9.37MB SAIC Generic Sensor Format (GSF)
0002_20160420_025506_EX1605L1_MB.gsf.mb121.gz 7.50MB SAIC Generic Sensor Format (GSF)
0003_20160420_035500_EX1605L1_MB.gsf.mb121.gz 5.88MB SAIC Generic Sensor Format (GSF)
0004_20160420_045501_EX1605L1_MB.gsf.mb121.gz 5.65MB SAIC Generic Sensor Format (GSF)
0005_20160420_055508_EX1605L1_MB.gsf.mb121.gz 4.98MB SAIC Generic Sensor Format (GSF)
0006_20160420_095215_EX1605L1_MB.gsf.mb121.gz 5.12MB SAIC Generic Sensor Format (GSF)
0007_20160420_103853_EX1605L1_MB.gsf.mb121.gz 5.57MB SAIC Generic Sensor Format (GSF)
0008_20160420_113855_EX1605L1_MB.gsf.mb121.gz 5.64MB SAIC Generic Sensor Format (GSF)
0009_20160420_123853_EX1605L1_MB.gsf.mb121.gz 6.80MB SAIC Generic Sensor Format (GSF)
0010_20160420_132615_EX1605L1_MB.gsf.mb121.gz 1.32MB SAIC Generic Sensor Format (GSF)
0011_20160420_133136_EX1605L1_MB.gsf.mb121.gz 26.49MB SAIC Generic Sensor Format (GSF)
0012_20160420_143133_EX1605L1_MB.gsf.mb121.gz 9.30MB SAIC Generic Sensor Format (GSF)
0013_20160420_150254_EX1605L1_MB.gsf.mb121.gz 1.13MB SAIC Generic Sensor Format (GSF)
0014_20160420_150725_EX1605L1_MB.gsf.mb121.gz 15.93MB SAIC Generic Sensor Format (GSF)
0015_20160420_160724_EX1605L1_MB.gsf.mb121.gz 16.12MB SAIC Generic Sensor Format (GSF)
0016_20160420_170634_EX1605L1_MB.gsf.mb121.gz 1.07MB SAIC Generic Sensor Format (GSF)
0017_20160420_171250_EX1605L1_MB.gsf.mb121.gz 0.64MB SAIC Generic Sensor Format (GSF)
0018_20160420_171623_EX1605L1_MB.gsf.mb121.gz 12.21MB SAIC Generic Sensor Format (GSF)
0019_20160420_181117_EX1605L1_MB.gsf.mb121.gz 3.03MB SAIC Generic Sensor Format (GSF)
0020_20160420_182333_EX1605L1_MB.gsf.mb121.gz 0.75MB SAIC Generic Sensor Format (GSF)
0021_20160421_052903_EX1605L1_MB.gsf.mb121.gz 14.76MB SAIC Generic Sensor Format (GSF)
0022_20160421_062903_EX1605L1_MB.gsf.mb121.gz 4.67MB SAIC Generic Sensor Format (GSF)
0023_20160421_064903_EX1605L1_MB.gsf.mb121.gz 464.3KB SAIC Generic Sensor Format (GSF)
0024_20160421_065049_EX1605L1_MB.gsf.mb121.gz 8.65MB SAIC Generic Sensor Format (GSF)
0025_20160421_072823_EX1605L1_MB.gsf.mb121.gz 10.60MB SAIC Generic Sensor Format (GSF)
0026_20160421_081138_EX1605L1_MB.gsf.mb121.gz 1.05MB SAIC Generic Sensor Format (GSF)
0027_20160421_081601_EX1605L1_MB.gsf.mb121.gz 10.22MB SAIC Generic Sensor Format (GSF)
0028_20160421_091606_EX1605L1_MB.gsf.mb121.gz 4.44MB SAIC Generic Sensor Format (GSF)
0029_20160421_094355_EX1605L1_MB.gsf.mb121.gz 1.04MB SAIC Generic Sensor Format (GSF)
0030_20160421_095015_EX1605L1_MB.gsf.mb121.gz 8.71MB SAIC Generic Sensor Format (GSF)
0031_20160421_105011_EX1605L1_MB.gsf.mb121.gz 9.46MB SAIC Generic Sensor Format (GSF)
0032_20160421_115014_EX1605L1_MB.gsf.mb121.gz 14.76MB SAIC Generic Sensor Format (GSF)
0033_20160421_125011_EX1605L1_MB.gsf.mb121.gz 5.74MB SAIC Generic Sensor Format (GSF)
0034_20160421_131243_EX1605L1_MB.gsf.mb121.gz 9.74MB SAIC Generic Sensor Format (GSF)
0035_20160421_141235_EX1605L1_MB.gsf.mb121.gz 9.87MB SAIC Generic Sensor Format (GSF)
0036_20160421_151239_EX1605L1_MB.gsf.mb121.gz 1.90MB SAIC Generic Sensor Format (GSF)
0037_20160421_152135_EX1605L1_MB.gsf.mb121.gz 448.5KB SAIC Generic Sensor Format (GSF)
0038_20160421_152328_EX1605L1_MB.gsf.mb121.gz 2.99MB SAIC Generic Sensor Format (GSF)
0039_20160421_153344_EX1605L1_MB.gsf.mb121.gz 2.16MB SAIC Generic Sensor Format (GSF)
0040_20160421_154058_EX1605L1_MB.gsf.mb121.gz 13.92MB SAIC Generic Sensor Format (GSF)
0041_20160421_164057_EX1605L1_MB.gsf.mb121.gz 17.08MB SAIC Generic Sensor Format (GSF)
0042_20160421_172741_EX1605L1_MB.gsf.mb121.gz 1.00MB SAIC Generic Sensor Format (GSF)
0043_20160421_173411_EX1605L1_MB.gsf.mb121.gz 5.57MB SAIC Generic Sensor Format (GSF)
0044_20160421_175859_EX1605L1_MB.gsf.mb121.gz 0.64MB SAIC Generic Sensor Format (GSF)
0045_20160421_180241_EX1605L1_MB.gsf.mb121.gz 3.54MB SAIC Generic Sensor Format (GSF)
0046_20160421_181334_EX1605L1_MB.gsf.mb121.gz 0.78MB SAIC Generic Sensor Format (GSF)
0047_20160421_181510_EX1605L1_MB.gsf.mb121.gz 1.29MB SAIC Generic Sensor Format (GSF)
0048_20160421_182000_EX1605L1_MB.gsf.mb121.gz 56.1KB SAIC Generic Sensor Format (GSF)
0049_20160422_052354_EX1605L1_MB.gsf.mb121.gz 11.54MB SAIC Generic Sensor Format (GSF)
0050_20160422_061255_EX1605L1_MB.gsf.mb121.gz 1.09MB SAIC Generic Sensor Format (GSF)
0051_20160422_061828_EX1605L1_MB.gsf.mb121.gz 6.65MB SAIC Generic Sensor Format (GSF)
0052_20160422_064125_EX1605L1_MB.gsf.mb121.gz 17.30MB SAIC Generic Sensor Format (GSF)
0053_20160422_074122_EX1605L1_MB.gsf.mb121.gz 4.90MB SAIC Generic Sensor Format (GSF)
0054_20160422_075738_EX1605L1_MB.gsf.mb121.gz 16.67MB SAIC Generic Sensor Format (GSF)
0055_20160422_085738_EX1605L1_MB.gsf.mb121.gz 12.09MB SAIC Generic Sensor Format (GSF)
0056_20160422_095737_EX1605L1_MB.gsf.mb121.gz 10.59MB SAIC Generic Sensor Format (GSF)
0057_20160422_103756_EX1605L1_MB.gsf.mb121.gz 1.23MB SAIC Generic Sensor Format (GSF)
0058_20160422_104112_EX1605L1_MB.gsf.mb121.gz 157.7KB SAIC Generic Sensor Format (GSF)
0059_20160422_104131_EX1605L1_MB.gsf.mb121.gz 17.77MB SAIC Generic Sensor Format (GSF)
0060_20160422_114131_EX1605L1_MB.gsf.mb121.gz 13.19MB SAIC Generic Sensor Format (GSF)
0061_20160422_124133_EX1605L1_MB.gsf.mb121.gz 7.15MB SAIC Generic Sensor Format (GSF)
0062_20160422_130646_EX1605L1_MB.gsf.mb121.gz 2.93MB SAIC Generic Sensor Format (GSF)
0063_20160422_131822_EX1605L1_MB.gsf.mb121.gz 15.25MB SAIC Generic Sensor Format (GSF)
0064_20160422_141509_EX1605L1_MB.gsf.mb121.gz 3.25MB SAIC Generic Sensor Format (GSF)
0065_20160422_142938_EX1605L1_MB.gsf.mb121.gz 5.25MB SAIC Generic Sensor Format (GSF)
0066_20160422_144912_EX1605L1_MB.gsf.mb121.gz 1.08MB SAIC Generic Sensor Format (GSF)
0067_20160422_145242_EX1605L1_MB.gsf.mb121.gz 5.32MB SAIC Generic Sensor Format (GSF)
0068_20160422_151144_EX1605L1_MB.gsf.mb121.gz 11.18MB SAIC Generic Sensor Format (GSF)
0069_20160422_161148_EX1605L1_MB.gsf.mb121.gz 7.38MB SAIC Generic Sensor Format (GSF)
0070_20160422_171144_EX1605L1_MB.gsf.mb121.gz 2.63MB SAIC Generic Sensor Format (GSF)
0071_20160422_173717_EX1605L1_MB.gsf.mb121.gz 4.81MB SAIC Generic Sensor Format (GSF)
0072_20160422_182331_EX1605L1_MB.gsf.mb121.gz 1.99MB SAIC Generic Sensor Format (GSF)
0073_20160423_070307_EX1605L1_MB.gsf.mb121.gz 6.18MB SAIC Generic Sensor Format (GSF)
0074_20160423_080314_EX1605L1_MB.gsf.mb121.gz 4.24MB SAIC Generic Sensor Format (GSF)
0075_20160423_084448_EX1605L1_MB.gsf.mb121.gz 5.68MB SAIC Generic Sensor Format (GSF)
0076_20160423_094436_EX1605L1_MB.gsf.mb121.gz 234.3KB SAIC Generic Sensor Format (GSF)
0077_20160423_094659_EX1605L1_MB.gsf.mb121.gz 4.26MB SAIC Generic Sensor Format (GSF)
0078_20160423_104659_EX1605L1_MB.gsf.mb121.gz 4.85MB SAIC Generic Sensor Format (GSF)
0079_20160423_114659_EX1605L1_MB.gsf.mb121.gz 5.20MB SAIC Generic Sensor Format (GSF)
0080_20160423_124653_EX1605L1_MB.gsf.mb121.gz 5.35MB SAIC Generic Sensor Format (GSF)
0081_20160423_134652_EX1605L1_MB.gsf.mb121.gz 3.09MB SAIC Generic Sensor Format (GSF)
0082_20160423_142051_EX1605L1_MB.gsf.mb121.gz 6.23MB SAIC Generic Sensor Format (GSF)
0083_20160423_152057_EX1605L1_MB.gsf.mb121.gz 1.10MB SAIC Generic Sensor Format (GSF)
0084_20160423_153238_EX1605L1_MB.gsf.mb121.gz 284.9KB SAIC Generic Sensor Format (GSF)
0085_20160423_153518_EX1605L1_MB.gsf.mb121.gz 1.71MB SAIC Generic Sensor Format (GSF)
0086_20160423_155323_EX1605L1_MB.gsf.mb121.gz 0.90MB SAIC Generic Sensor Format (GSF)
0087_20160423_160230_EX1605L1_MB.gsf.mb121.gz 7.18MB SAIC Generic Sensor Format (GSF)
0088_20160423_170231_EX1605L1_MB.gsf.mb121.gz 408.7KB SAIC Generic Sensor Format (GSF)
0089_20160423_170633_EX1605L1_MB.gsf.mb121.gz 1.90MB SAIC Generic Sensor Format (GSF)
0090_20160423_172718_EX1605L1_MB.gsf.mb121.gz 3.23MB SAIC Generic Sensor Format (GSF)
0091_20160423_180214_EX1605L1_MB.gsf.mb121.gz 1.44MB SAIC Generic Sensor Format (GSF)
0092_20160423_181805_EX1605L1_MB.gsf.mb121.gz 148.8KB SAIC Generic Sensor Format (GSF)
0093_20160424_185448_EX1605L1_MB.gsf.mb121.gz 459.0KB SAIC Generic Sensor Format (GSF)
0094_20160425_040343_EX1605L1_MB.gsf.mb121.gz 2.79MB SAIC Generic Sensor Format (GSF)
0095_20160425_043356_EX1605L1_MB.gsf.mb121.gz 5.43MB SAIC Generic Sensor Format (GSF)
0096_20160425_053401_EX1605L1_MB.gsf.mb121.gz 5.45MB SAIC Generic Sensor Format (GSF)
0097_20160425_063400_EX1605L1_MB.gsf.mb121.gz 5.21MB SAIC Generic Sensor Format (GSF)
0098_20160425_073359_EX1605L1_MB.gsf.mb121.gz 4.06MB SAIC Generic Sensor Format (GSF)
0099_20160425_083358_EX1605L1_MB.gsf.mb121.gz 4.67MB SAIC Generic Sensor Format (GSF)
0100_20160425_093358_EX1605L1_MB.gsf.mb121.gz 5.17MB SAIC Generic Sensor Format (GSF)
0101_20160425_103354_EX1605L1_MB.gsf.mb121.gz 5.37MB SAIC Generic Sensor Format (GSF)
0102_20160425_113400_EX1605L1_MB.gsf.mb121.gz 5.71MB SAIC Generic Sensor Format (GSF)
0103_20160425_123355_EX1605L1_MB.gsf.mb121.gz 5.31MB SAIC Generic Sensor Format (GSF)
0104_20160425_133103_EX1605L1_MB.gsf.mb121.gz 5.56MB SAIC Generic Sensor Format (GSF)
0105_20160425_143055_EX1605L1_MB.gsf.mb121.gz 1.84MB SAIC Generic Sensor Format (GSF)
0106_20160425_144528_EX1605L1_MB.gsf.mb121.gz 6.18MB SAIC Generic Sensor Format (GSF)
0107_20160425_173214_EX1605L1_MB.gsf.mb121.gz 2.68MB SAIC Generic Sensor Format (GSF)
0108_20160425_175135_EX1605L1_MB.gsf.mb121.gz 7.80MB SAIC Generic Sensor Format (GSF)
0109_20160425_185135_EX1605L1_MB.gsf.mb121.gz 0.53MB SAIC Generic Sensor Format (GSF)
0110_20160425_185617_EX1605L1_MB.gsf.mb121.gz 0.86MB SAIC Generic Sensor Format (GSF)
0111_20160425_190238_EX1605L1_MB.gsf.mb121.gz 0.98MB SAIC Generic Sensor Format (GSF)
0112_20160426_072819_EX1605L1_MB.gsf.mb121.gz 2.12MB SAIC Generic Sensor Format (GSF)
0113_20160426_074426_EX1605L1_MB.gsf.mb121.gz 6.44MB SAIC Generic Sensor Format (GSF)
0114_20160426_084418_EX1605L1_MB.gsf.mb121.gz 4.25MB SAIC Generic Sensor Format (GSF)
0115_20160426_091628_EX1605L1_MB.gsf.mb121.gz 319.4KB SAIC Generic Sensor Format (GSF)
0116_20160426_091838_EX1605L1_MB.gsf.mb121.gz 1.10MB SAIC Generic Sensor Format (GSF)
0117_20160426_092653_EX1605L1_MB.gsf.mb121.gz 264.1KB SAIC Generic Sensor Format (GSF)
0118_20160426_092842_EX1605L1_MB.gsf.mb121.gz 7.04MB SAIC Generic Sensor Format (GSF)
0119_20160426_102148_EX1605L1_MB.gsf.mb121.gz 305.2KB SAIC Generic Sensor Format (GSF)
0120_20160426_102341_EX1605L1_MB.gsf.mb121.gz 1.04MB SAIC Generic Sensor Format (GSF)
0121_20160426_103120_EX1605L1_MB.gsf.mb121.gz 333.8KB SAIC Generic Sensor Format (GSF)
0122_20160426_103341_EX1605L1_MB.gsf.mb121.gz 2.56MB SAIC Generic Sensor Format (GSF)
0123_20160426_105322_EX1605L1_MB.gsf.mb121.gz 279.1KB SAIC Generic Sensor Format (GSF)
0124_20160426_105511_EX1605L1_MB.gsf.mb121.gz 3.66MB SAIC Generic Sensor Format (GSF)
0125_20160426_112214_EX1605L1_MB.gsf.mb121.gz 298.2KB SAIC Generic Sensor Format (GSF)
0126_20160426_112411_EX1605L1_MB.gsf.mb121.gz 0.99MB SAIC Generic Sensor Format (GSF)
0127_20160426_113129_EX1605L1_MB.gsf.mb121.gz 267.4KB SAIC Generic Sensor Format (GSF)
0128_20160426_113321_EX1605L1_MB.gsf.mb121.gz 4.34MB SAIC Generic Sensor Format (GSF)
0129_20160426_120626_EX1605L1_MB.gsf.mb121.gz 6.51MB SAIC Generic Sensor Format (GSF)
0130_20160426_130627_EX1605L1_MB.gsf.mb121.gz 3.49MB SAIC Generic Sensor Format (GSF)
0131_20160426_133615_EX1605L1_MB.gsf.mb121.gz 0.71MB SAIC Generic Sensor Format (GSF)
0132_20160426_134133_EX1605L1_MB.gsf.mb121.gz 5.99MB SAIC Generic Sensor Format (GSF)
0133_20160426_144134_EX1605L1_MB.gsf.mb121.gz 3.91MB SAIC Generic Sensor Format (GSF)
0134_20160426_151856_EX1605L1_MB.gsf.mb121.gz 311.9KB SAIC Generic Sensor Format (GSF)
0135_20160426_195251_EX1605L1_MB.gsf.mb121.gz 0.61MB SAIC Generic Sensor Format (GSF)
0136_20160426_195745_EX1605L1_MB.gsf.mb121.gz 3.02MB SAIC Generic Sensor Format (GSF)
0137_20160426_201954_EX1605L1_MB.gsf.mb121.gz 1.85MB SAIC Generic Sensor Format (GSF)
0138_20160427_072026_EX1605L1_MB.gsf.mb121.gz 7.61MB SAIC Generic Sensor Format (GSF)
0139_20160427_082025_EX1605L1_MB.gsf.mb121.gz 307.0KB SAIC Generic Sensor Format (GSF)
0140_20160427_082315_EX1605L1_MB.gsf.mb121.gz 5.68MB SAIC Generic Sensor Format (GSF)
0141_20160427_092308_EX1605L1_MB.gsf.mb121.gz 5.61MB SAIC Generic Sensor Format (GSF)
0142_20160427_102306_EX1605L1_MB.gsf.mb121.gz 5.96MB SAIC Generic Sensor Format (GSF)
0143_20160427_112310_EX1605L1_MB.gsf.mb121.gz 1.84MB SAIC Generic Sensor Format (GSF)
0144_20160427_113614_EX1605L1_MB.gsf.mb121.gz 208.7KB SAIC Generic Sensor Format (GSF)
0145_20160427_113729_EX1605L1_MB.gsf.mb121.gz 9.75MB SAIC Generic Sensor Format (GSF)
0146_20160427_123730_EX1605L1_MB.gsf.mb121.gz 0.88MB SAIC Generic Sensor Format (GSF)
0147_20160427_125000_EX1605L1_MB.gsf.mb121.gz 1.58MB SAIC Generic Sensor Format (GSF)
0148_20160427_125933_EX1605L1_MB.gsf.mb121.gz 368.7KB SAIC Generic Sensor Format (GSF)
0149_20160427_130136_EX1605L1_MB.gsf.mb121.gz 9.88MB SAIC Generic Sensor Format (GSF)
0150_20160427_140138_EX1605L1_MB.gsf.mb121.gz 2.04MB SAIC Generic Sensor Format (GSF)
0151_20160427_141447_EX1605L1_MB.gsf.mb121.gz 216.6KB SAIC Generic Sensor Format (GSF)
0152_20160427_141610_EX1605L1_MB.gsf.mb121.gz 6.76MB SAIC Generic Sensor Format (GSF)
0153_20160427_151613_EX1605L1_MB.gsf.mb121.gz 5.59MB SAIC Generic Sensor Format (GSF)
0154_20160427_161608_EX1605L1_MB.gsf.mb121.gz 5.70MB SAIC Generic Sensor Format (GSF)
0155_20160427_171613_EX1605L1_MB.gsf.mb121.gz 5.75MB SAIC Generic Sensor Format (GSF)
0156_20160427_180755_EX1605L1_MB.gsf.mb121.gz 1.36MB SAIC Generic Sensor Format (GSF)
0157_20160428_052537_EX1605L1_MB.gsf.mb121.gz 6.50MB SAIC Generic Sensor Format (GSF)
0158_20160428_062540_EX1605L1_MB.gsf.mb121.gz 2.47MB SAIC Generic Sensor Format (GSF)
0159_20160428_064655_EX1605L1_MB.gsf.mb121.gz 2.65MB SAIC Generic Sensor Format (GSF)
0160_20160428_070721_EX1605L1_MB.gsf.mb121.gz 400.2KB SAIC Generic Sensor Format (GSF)
0161_20160428_071010_EX1605L1_MB.gsf.mb121.gz 6.85MB SAIC Generic Sensor Format (GSF)
0162_20160428_081014_EX1605L1_MB.gsf.mb121.gz 6.45MB SAIC Generic Sensor Format (GSF)
0163_20160428_091010_EX1605L1_MB.gsf.mb121.gz 6.71MB SAIC Generic Sensor Format (GSF)
0164_20160428_101010_EX1605L1_MB.gsf.mb121.gz 6.88MB SAIC Generic Sensor Format (GSF)
0165_20160428_111011_EX1605L1_MB.gsf.mb121.gz 5.67MB SAIC Generic Sensor Format (GSF)
0166_20160428_121009_EX1605L1_MB.gsf.mb121.gz 5.98MB SAIC Generic Sensor Format (GSF)
0167_20160428_131008_EX1605L1_MB.gsf.mb121.gz 9.42MB SAIC Generic Sensor Format (GSF)
0168_20160428_141011_EX1605L1_MB.gsf.mb121.gz 7.36MB SAIC Generic Sensor Format (GSF)
0169_20160428_151009_EX1605L1_MB.gsf.mb121.gz 5.79MB SAIC Generic Sensor Format (GSF)
0170_20160428_161006_EX1605L1_MB.gsf.mb121.gz 7.30MB SAIC Generic Sensor Format (GSF)
0172_20160428_171013_EX1605L1_MB.gsf.mb121.gz 1.36MB SAIC Generic Sensor Format (GSF)
0173_20160428_171915_EX1605L1_MB.gsf.mb121.gz 7.01MB SAIC Generic Sensor Format (GSF)
0174_20160428_180356_EX1605L1_MB.gsf.mb121.gz 2.59MB SAIC Generic Sensor Format (GSF)
0175_20160429_054245_EX1605L1_MB.gsf.mb121.gz 6.44MB SAIC Generic Sensor Format (GSF)
0176_20160429_064251_EX1605L1_MB.gsf.mb121.gz 5.75MB SAIC Generic Sensor Format (GSF)
0177_20160429_074251_EX1605L1_MB.gsf.mb121.gz 5.76MB SAIC Generic Sensor Format (GSF)
0178_20160429_084244_EX1605L1_MB.gsf.mb121.gz 5.94MB SAIC Generic Sensor Format (GSF)
0179_20160429_094251_EX1605L1_MB.gsf.mb121.gz 6.02MB SAIC Generic Sensor Format (GSF)
0180_20160429_104248_EX1605L1_MB.gsf.mb121.gz 3.08MB SAIC Generic Sensor Format (GSF)
0181_20160429_111528_EX1605L1_MB.gsf.mb121.gz 0.51MB SAIC Generic Sensor Format (GSF)
0182_20160429_112022_EX1605L1_MB.gsf.mb121.gz 4.02MB SAIC Generic Sensor Format (GSF)
0183_20160429_120147_EX1605L1_MB.gsf.mb121.gz 4.27MB SAIC Generic Sensor Format (GSF)
0184_20160429_124803_EX1605L1_MB.gsf.mb121.gz 1.94MB SAIC Generic Sensor Format (GSF)
0185_20160429_130907_EX1605L1_MB.gsf.mb121.gz 4.43MB SAIC Generic Sensor Format (GSF)
0186_20160429_135550_EX1605L1_MB.gsf.mb121.gz 0.62MB SAIC Generic Sensor Format (GSF)
0187_20160429_140013_EX1605L1_MB.gsf.mb121.gz 6.04MB SAIC Generic Sensor Format (GSF)
0188_20160429_150018_EX1605L1_MB.gsf.mb121.gz 5.64MB SAIC Generic Sensor Format (GSF)
0189_20160429_160013_EX1605L1_MB.gsf.mb121.gz 5.61MB SAIC Generic Sensor Format (GSF)
0190_20160429_170013_EX1605L1_MB.gsf.mb121.gz 5.56MB SAIC Generic Sensor Format (GSF)
0191_20160429_180014_EX1605L1_MB.gsf.mb121.gz 1.32MB SAIC Generic Sensor Format (GSF)
0192_20160430_071717_EX1605L1_MB.gsf.mb121.gz 6.06MB SAIC Generic Sensor Format (GSF)
0193_20160430_081713_EX1605L1_MB.gsf.mb121.gz 5.84MB SAIC Generic Sensor Format (GSF)
0194_20160430_091711_EX1605L1_MB.gsf.mb121.gz 4.97MB SAIC Generic Sensor Format (GSF)
0195_20160430_100824_EX1605L1_MB.gsf.mb121.gz 5.86MB SAIC Generic Sensor Format (GSF)
0196_20160430_110810_EX1605L1_MB.gsf.mb121.gz 5.75MB SAIC Generic Sensor Format (GSF)
0197_20160430_120810_EX1605L1_MB.gsf.mb121.gz 5.86MB SAIC Generic Sensor Format (GSF)
0198_20160430_130812_EX1605L1_MB.gsf.mb121.gz 5.83MB SAIC Generic Sensor Format (GSF)
0199_20160430_140811_EX1605L1_MB.gsf.mb121.gz 5.81MB SAIC Generic Sensor Format (GSF)
0200_20160430_150812_EX1605L1_MB.gsf.mb121.gz 5.81MB SAIC Generic Sensor Format (GSF)
0201_20160430_160807_EX1605L1_MB.gsf.mb121.gz 4.73MB SAIC Generic Sensor Format (GSF)
0202_20160430_165644_EX1605L1_MB.gsf.mb121.gz 378.5KB SAIC Generic Sensor Format (GSF)
0203_20160430_170010_EX1605L1_MB.gsf.mb121.gz 1.26MB SAIC Generic Sensor Format (GSF)
0204_20160430_171322_EX1605L1_MB.gsf.mb121.gz 412.7KB SAIC Generic Sensor Format (GSF)
0205_20160430_171729_EX1605L1_MB.gsf.mb121.gz 1.29MB SAIC Generic Sensor Format (GSF)
0206_20160430_173040_EX1605L1_MB.gsf.mb121.gz 4.23MB SAIC Generic Sensor Format (GSF)
0207_20160501_072622_EX1605L1_MB.gsf.mb121.gz 5.56MB SAIC Generic Sensor Format (GSF)
0208_20160501_082623_EX1605L1_MB.gsf.mb121.gz 5.62MB SAIC Generic Sensor Format (GSF)
0209_20160501_092625_EX1605L1_MB.gsf.mb121.gz 5.62MB SAIC Generic Sensor Format (GSF)
0210_20160501_102621_EX1605L1_MB.gsf.mb121.gz 5.38MB SAIC Generic Sensor Format (GSF)
0211_20160501_112130_EX1605L1_MB.gsf.mb121.gz 131.5KB SAIC Generic Sensor Format (GSF)
0212_20160501_112225_EX1605L1_MB.gsf.mb121.gz 5.35MB SAIC Generic Sensor Format (GSF)
0213_20160501_121721_EX1605L1_MB.gsf.mb121.gz 5.84MB SAIC Generic Sensor Format (GSF)
0214_20160501_131714_EX1605L1_MB.gsf.mb121.gz 5.84MB SAIC Generic Sensor Format (GSF)
0215_20160501_141715_EX1605L1_MB.gsf.mb121.gz 3.42MB SAIC Generic Sensor Format (GSF)
0216_20160501_145222_EX1605L1_MB.gsf.mb121.gz 5.94MB SAIC Generic Sensor Format (GSF)
0217_20160501_155219_EX1605L1_MB.gsf.mb121.gz 5.79MB SAIC Generic Sensor Format (GSF)
0218_20160501_165222_EX1605L1_MB.gsf.mb121.gz 5.57MB SAIC Generic Sensor Format (GSF)
0219_20160501_175220_EX1605L1_MB.gsf.mb121.gz 2.53MB SAIC Generic Sensor Format (GSF)
0220_20160502_065633_EX1605L1_MB.gsf.mb121.gz 1.27MB SAIC Generic Sensor Format (GSF)
0221_20160502_071918_EX1605L1_MB.gsf.mb121.gz 5.87MB SAIC Generic Sensor Format (GSF)
0222_20160502_081917_EX1605L1_MB.gsf.mb121.gz 2.20MB SAIC Generic Sensor Format (GSF)
0223_20160502_084136_EX1605L1_MB.gsf.mb121.gz 433.3KB SAIC Generic Sensor Format (GSF)
0224_20160502_084535_EX1605L1_MB.gsf.mb121.gz 0.75MB SAIC Generic Sensor Format (GSF)
0225_20160502_085257_EX1605L1_MB.gsf.mb121.gz 145.5KB SAIC Generic Sensor Format (GSF)
0226_20160502_085400_EX1605L1_MB.gsf.mb121.gz 1.74MB SAIC Generic Sensor Format (GSF)
0227_20160502_091100_EX1605L1_MB.gsf.mb121.gz 379.4KB SAIC Generic Sensor Format (GSF)
0228_20160502_091423_EX1605L1_MB.gsf.mb121.gz 1.82MB SAIC Generic Sensor Format (GSF)
0229_20160502_093236_EX1605L1_MB.gsf.mb121.gz 407.8KB SAIC Generic Sensor Format (GSF)
0230_20160502_093615_EX1605L1_MB.gsf.mb121.gz 2.04MB SAIC Generic Sensor Format (GSF)
0231_20160502_095624_EX1605L1_MB.gsf.mb121.gz 0.63MB SAIC Generic Sensor Format (GSF)
0232_20160502_100232_EX1605L1_MB.gsf.mb121.gz 1.72MB SAIC Generic Sensor Format (GSF)
0233_20160502_101945_EX1605L1_MB.gsf.mb121.gz 473.4KB SAIC Generic Sensor Format (GSF)
0234_20160502_102405_EX1605L1_MB.gsf.mb121.gz 1.70MB SAIC Generic Sensor Format (GSF)
0235_20160502_104059_EX1605L1_MB.gsf.mb121.gz 6.18MB SAIC Generic Sensor Format (GSF)
0236_20160502_114053_EX1605L1_MB.gsf.mb121.gz 4.29MB SAIC Generic Sensor Format (GSF)
0237_20160502_122525_EX1605L1_MB.gsf.mb121.gz 5.82MB SAIC Generic Sensor Format (GSF)
0238_20160502_132525_EX1605L1_MB.gsf.mb121.gz 5.83MB SAIC Generic Sensor Format (GSF)
0239_20160502_142521_EX1605L1_MB.gsf.mb121.gz 6.70MB SAIC Generic Sensor Format (GSF)
0240_20160502_152524_EX1605L1_MB.gsf.mb121.gz 8.76MB SAIC Generic Sensor Format (GSF)
0241_20160502_162518_EX1605L1_MB.gsf.mb121.gz 9.08MB SAIC Generic Sensor Format (GSF)
0242_20160502_172519_EX1605L1_MB.gsf.mb121.gz 8.73MB SAIC Generic Sensor Format (GSF)
0243_20160503_052545_EX1605L1_MB.gsf.mb121.gz 9.83MB SAIC Generic Sensor Format (GSF)
0244_20160503_062547_EX1605L1_MB.gsf.mb121.gz 6.69MB SAIC Generic Sensor Format (GSF)
0245_20160503_070341_EX1605L1_MB.gsf.mb121.gz 13.96MB SAIC Generic Sensor Format (GSF)
0246_20160503_080341_EX1605L1_MB.gsf.mb121.gz 8.67MB SAIC Generic Sensor Format (GSF)
0247_20160503_090346_EX1605L1_MB.gsf.mb121.gz 6.13MB SAIC Generic Sensor Format (GSF)
0248_20160503_100346_EX1605L1_MB.gsf.mb121.gz 5.97MB SAIC Generic Sensor Format (GSF)
0249_20160503_110343_EX1605L1_MB.gsf.mb121.gz 5.82MB SAIC Generic Sensor Format (GSF)
0250_20160503_120341_EX1605L1_MB.gsf.mb121.gz 5.69MB SAIC Generic Sensor Format (GSF)
0251_20160503_130349_EX1605L1_MB.gsf.mb121.gz 5.61MB SAIC Generic Sensor Format (GSF)
0252_20160503_140344_EX1605L1_MB.gsf.mb121.gz 5.64MB SAIC Generic Sensor Format (GSF)
0253_20160503_150349_EX1605L1_MB.gsf.mb121.gz 1.49MB SAIC Generic Sensor Format (GSF)
0254_20160503_151856_EX1605L1_MB.gsf.mb121.gz 184.8KB SAIC Generic Sensor Format (GSF)
0255_20160503_152025_EX1605L1_MB.gsf.mb121.gz 2.80MB SAIC Generic Sensor Format (GSF)
0256_20160503_154952_EX1605L1_MB.gsf.mb121.gz 0.73MB SAIC Generic Sensor Format (GSF)
0257_20160503_155712_EX1605L1_MB.gsf.mb121.gz 2.91MB SAIC Generic Sensor Format (GSF)
0258_20160503_162800_EX1605L1_MB.gsf.mb121.gz 0.54MB SAIC Generic Sensor Format (GSF)
0259_20160503_163325_EX1605L1_MB.gsf.mb121.gz 1.03MB SAIC Generic Sensor Format (GSF)
0260_20160503_164357_EX1605L1_MB.gsf.mb121.gz 0.86MB SAIC Generic Sensor Format (GSF)
0261_20160503_165242_EX1605L1_MB.gsf.mb121.gz 1.95MB SAIC Generic Sensor Format (GSF)
0262_20160503_171306_EX1605L1_MB.gsf.mb121.gz 0.73MB SAIC Generic Sensor Format (GSF)
0263_20160503_172031_EX1605L1_MB.gsf.mb121.gz 2.38MB SAIC Generic Sensor Format (GSF)
0264_20160503_174529_EX1605L1_MB.gsf.mb121.gz 0.68MB SAIC Generic Sensor Format (GSF)
0265_20160503_175217_EX1605L1_MB.gsf.mb121.gz 1.58MB SAIC Generic Sensor Format (GSF)
0266_20160503_180845_EX1605L1_MB.gsf.mb121.gz 0.55MB SAIC Generic Sensor Format (GSF)
0267_20160503_181409_EX1605L1_MB.gsf.mb121.gz 0.75MB SAIC Generic Sensor Format (GSF)
0268_20160504_054355_EX1605L1_MB.gsf.mb121.gz 5.66MB SAIC Generic Sensor Format (GSF)
0269_20160504_064355_EX1605L1_MB.gsf.mb121.gz 5.63MB SAIC Generic Sensor Format (GSF)
0270_20160504_074357_EX1605L1_MB.gsf.mb121.gz 5.66MB SAIC Generic Sensor Format (GSF)
0271_20160504_084356_EX1605L1_MB.gsf.mb121.gz 5.63MB SAIC Generic Sensor Format (GSF)
0272_20160504_094354_EX1605L1_MB.gsf.mb121.gz 5.16MB SAIC Generic Sensor Format (GSF)
0273_20160504_104354_EX1605L1_MB.gsf.mb121.gz 5.10MB SAIC Generic Sensor Format (GSF)
0274_20160504_114353_EX1605L1_MB.gsf.mb121.gz 5.06MB SAIC Generic Sensor Format (GSF)
0275_20160504_124351_EX1605L1_MB.gsf.mb121.gz 4.83MB SAIC Generic Sensor Format (GSF)
0276_20160504_134352_EX1605L1_MB.gsf.mb121.gz 5.19MB SAIC Generic Sensor Format (GSF)
0277_20160504_144357_EX1605L1_MB.gsf.mb121.gz 6.37MB SAIC Generic Sensor Format (GSF)
0278_20160504_154350_EX1605L1_MB.gsf.mb121.gz 6.75MB SAIC Generic Sensor Format (GSF)
0279_20160504_164352_EX1605L1_MB.gsf.mb121.gz 6.64MB SAIC Generic Sensor Format (GSF)
0280_20160504_174353_EX1605L1_MB.gsf.mb121.gz 6.36MB SAIC Generic Sensor Format (GSF)
0281_20160504_184350_EX1605L1_MB.gsf.mb121.gz 5.31MB SAIC Generic Sensor Format (GSF)
0282_20160504_192847_EX1605L1_MB.gsf.mb121.gz 2.49MB SAIC Generic Sensor Format (GSF)
0283_20160505_053012_EX1605L1_MB.gsf.mb121.gz 8.67MB SAIC Generic Sensor Format (GSF)
0284_20160505_063009_EX1605L1_MB.gsf.mb121.gz 2.07MB SAIC Generic Sensor Format (GSF)
0285_20160505_065026_EX1605L1_MB.gsf.mb121.gz 0.56MB SAIC Generic Sensor Format (GSF)
0286_20160505_065546_EX1605L1_MB.gsf.mb121.gz 5.68MB SAIC Generic Sensor Format (GSF)
0287_20160505_075028_EX1605L1_MB.gsf.mb121.gz 7.33MB SAIC Generic Sensor Format (GSF)
0288_20160505_085023_EX1605L1_MB.gsf.mb121.gz 7.46MB SAIC Generic Sensor Format (GSF)
0289_20160505_095025_EX1605L1_MB.gsf.mb121.gz 3.04MB SAIC Generic Sensor Format (GSF)
0290_20160505_101547_EX1605L1_MB.gsf.mb121.gz 195.2KB SAIC Generic Sensor Format (GSF)
0291_20160505_101729_EX1605L1_MB.gsf.mb121.gz 5.70MB SAIC Generic Sensor Format (GSF)
0292_20160505_111728_EX1605L1_MB.gsf.mb121.gz 5.72MB SAIC Generic Sensor Format (GSF)
0293_20160505_121728_EX1605L1_MB.gsf.mb121.gz 7.91MB SAIC Generic Sensor Format (GSF)
0294_20160505_131734_EX1605L1_MB.gsf.mb121.gz 6.53MB SAIC Generic Sensor Format (GSF)
0295_20160505_141737_EX1605L1_MB.gsf.mb121.gz 5.46MB SAIC Generic Sensor Format (GSF)
0296_20160505_151732_EX1605L1_MB.gsf.mb121.gz 5.59MB SAIC Generic Sensor Format (GSF)
0297_20160505_161737_EX1605L1_MB.gsf.mb121.gz 1.58MB SAIC Generic Sensor Format (GSF)
0298_20160505_163416_EX1605L1_MB.gsf.mb121.gz 478.6KB SAIC Generic Sensor Format (GSF)
0299_20160505_163902_EX1605L1_MB.gsf.mb121.gz 7.02MB SAIC Generic Sensor Format (GSF)
0300_20160505_173901_EX1605L1_MB.gsf.mb121.gz 0.53MB SAIC Generic Sensor Format (GSF)
0301_20160505_174338_EX1605L1_MB.gsf.mb121.gz 3.18MB SAIC Generic Sensor Format (GSF)
0302_20160506_054055_EX1605L1_MB.gsf.mb121.gz 4.55MB SAIC Generic Sensor Format (GSF)
0303_20160506_062003_EX1605L1_MB.gsf.mb121.gz 1.04MB SAIC Generic Sensor Format (GSF)
0304_20160506_062831_EX1605L1_MB.gsf.mb121.gz 7.46MB SAIC Generic Sensor Format (GSF)
0305_20160506_072833_EX1605L1_MB.gsf.mb121.gz 5.18MB SAIC Generic Sensor Format (GSF)
0306_20160506_082413_EX1605L1_MB.gsf.mb121.gz 5.63MB SAIC Generic Sensor Format (GSF)
0307_20160506_092408_EX1605L1_MB.gsf.mb121.gz 9.03MB SAIC Generic Sensor Format (GSF)
0308_20160506_102408_EX1605L1_MB.gsf.mb121.gz 7.08MB SAIC Generic Sensor Format (GSF)
0309_20160506_111641_EX1605L1_MB.gsf.mb121.gz 166.9KB SAIC Generic Sensor Format (GSF)
0310_20160506_111813_EX1605L1_MB.gsf.mb121.gz 5.54MB SAIC Generic Sensor Format (GSF)
0311_20160506_121817_EX1605L1_MB.gsf.mb121.gz 5.56MB SAIC Generic Sensor Format (GSF)
0312_20160506_131817_EX1605L1_MB.gsf.mb121.gz 2.70MB SAIC Generic Sensor Format (GSF)
0313_20160506_134613_EX1605L1_MB.gsf.mb121.gz 470.6KB SAIC Generic Sensor Format (GSF)
0314_20160506_134925_EX1605L1_MB.gsf.mb121.gz 4.46MB SAIC Generic Sensor Format (GSF)
0315_20160506_142239_EX1605L1_MB.gsf.mb121.gz 0.69MB SAIC Generic Sensor Format (GSF)
0316_20160506_142735_EX1605L1_MB.gsf.mb121.gz 2.97MB SAIC Generic Sensor Format (GSF)
0317_20160506_144921_EX1605L1_MB.gsf.mb121.gz 0.70MB SAIC Generic Sensor Format (GSF)
0318_20160506_145421_EX1605L1_MB.gsf.mb121.gz 8.58MB SAIC Generic Sensor Format (GSF)
0319_20160506_155417_EX1605L1_MB.gsf.mb121.gz 5.88MB SAIC Generic Sensor Format (GSF)
0320_20160506_163535_EX1605L1_MB.gsf.mb121.gz 0.73MB SAIC Generic Sensor Format (GSF)
0321_20160506_164053_EX1605L1_MB.gsf.mb121.gz 8.38MB SAIC Generic Sensor Format (GSF)
0322_20160506_174046_EX1605L1_MB.gsf.mb121.gz 4.65MB SAIC Generic Sensor Format (GSF)
0323_20160507_032518_EX1605L1_MB.gsf.mb121.gz 7.57MB SAIC Generic Sensor Format (GSF)
0324_20160507_042526_EX1605L1_MB.gsf.mb121.gz 5.51MB SAIC Generic Sensor Format (GSF)
0325_20160507_052524_EX1605L1_MB.gsf.mb121.gz 5.62MB SAIC Generic Sensor Format (GSF)
0326_20160507_062527_EX1605L1_MB.gsf.mb121.gz 5.52MB SAIC Generic Sensor Format (GSF)
0327_20160507_072524_EX1605L1_MB.gsf.mb121.gz 5.38MB SAIC Generic Sensor Format (GSF)
0328_20160507_082526_EX1605L1_MB.gsf.mb121.gz 0.53MB SAIC Generic Sensor Format (GSF)
0329_20160507_083102_EX1605L1_MB.gsf.mb121.gz 4.67MB SAIC Generic Sensor Format (GSF)
0330_20160507_092100_EX1605L1_MB.gsf.mb121.gz 5.78MB SAIC Generic Sensor Format (GSF)
0331_20160507_102050_EX1605L1_MB.gsf.mb121.gz 5.77MB SAIC Generic Sensor Format (GSF)
0332_20160507_112051_EX1605L1_MB.gsf.mb121.gz 5.68MB SAIC Generic Sensor Format (GSF)
0333_20160507_122058_EX1605L1_MB.gsf.mb121.gz 5.57MB SAIC Generic Sensor Format (GSF)
0334_20160507_132049_EX1605L1_MB.gsf.mb121.gz 5.67MB SAIC Generic Sensor Format (GSF)
0335_20160507_142057_EX1605L1_MB.gsf.mb121.gz 5.71MB SAIC Generic Sensor Format (GSF)
0336_20160507_152050_EX1605L1_MB.gsf.mb121.gz 5.87MB SAIC Generic Sensor Format (GSF)
0337_20160507_162056_EX1605L1_MB.gsf.mb121.gz 8.58MB SAIC Generic Sensor Format (GSF)
0338_20160507_172052_EX1605L1_MB.gsf.mb121.gz 11.85MB SAIC Generic Sensor Format (GSF)
0339_20160507_181043_EX1605L1_MB.gsf.mb121.gz 3.55MB SAIC Generic Sensor Format (GSF)
0340_20160508_052217_EX1605L1_MB.gsf.mb121.gz 3.17MB SAIC Generic Sensor Format (GSF)
0341_20160508_053339_EX1605L1_MB.gsf.mb121.gz 8.97MB SAIC Generic Sensor Format (GSF)
0342_20160508_060702_EX1605L1_MB.gsf.mb121.gz 4.03MB SAIC Generic Sensor Format (GSF)
0343_20160508_063133_EX1605L1_MB.gsf.mb121.gz 9.30MB SAIC Generic Sensor Format (GSF)
0344_20160508_071649_EX1605L1_MB.gsf.mb121.gz 2.73MB SAIC Generic Sensor Format (GSF)
0345_20160508_072953_EX1605L1_MB.gsf.mb121.gz 9.83MB SAIC Generic Sensor Format (GSF)
0346_20160508_081407_EX1605L1_MB.gsf.mb121.gz 2.97MB SAIC Generic Sensor Format (GSF)
0347_20160508_083040_EX1605L1_MB.gsf.mb121.gz 2.78MB SAIC Generic Sensor Format (GSF)
0348_20160508_084244_EX1605L1_MB.gsf.mb121.gz 8.57MB SAIC Generic Sensor Format (GSF)
0349_20160508_092115_EX1605L1_MB.gsf.mb121.gz 12.42MB SAIC Generic Sensor Format (GSF)
0350_20160508_102119_EX1605L1_MB.gsf.mb121.gz 10.44MB SAIC Generic Sensor Format (GSF)
0351_20160508_112115_EX1605L1_MB.gsf.mb121.gz 9.50MB SAIC Generic Sensor Format (GSF)
0352_20160508_122118_EX1605L1_MB.gsf.mb121.gz 9.07MB SAIC Generic Sensor Format (GSF)
0353_20160508_132121_EX1605L1_MB.gsf.mb121.gz 9.01MB SAIC Generic Sensor Format (GSF)
0354_20160508_142114_EX1605L1_MB.gsf.mb121.gz 9.56MB SAIC Generic Sensor Format (GSF)
0355_20160508_152117_EX1605L1_MB.gsf.mb121.gz 10.48MB SAIC Generic Sensor Format (GSF)
0356_20160508_162125_EX1605L1_MB.gsf.mb121.gz 9.24MB SAIC Generic Sensor Format (GSF)
0357_20160508_172115_EX1605L1_MB.gsf.mb121.gz 10.82MB SAIC Generic Sensor Format (GSF)
0358_20160508_182114_EX1605L1_MB.gsf.mb121.gz 1.19MB SAIC Generic Sensor Format (GSF)
0359_20160509_053134_EX1605L1_MB.gsf.mb121.gz 6.42MB SAIC Generic Sensor Format (GSF)
0360_20160509_055002_EX1605L1_MB.gsf.mb121.gz 9.14MB SAIC Generic Sensor Format (GSF)
0361_20160509_061406_EX1605L1_MB.gsf.mb121.gz 2.43MB SAIC Generic Sensor Format (GSF)
0362_20160509_062141_EX1605L1_MB.gsf.mb121.gz 12.80MB SAIC Generic Sensor Format (GSF)
0363_20160509_064412_EX1605L1_MB.gsf.mb121.gz 4.50MB SAIC Generic Sensor Format (GSF)
0364_20160509_070142_EX1605L1_MB.gsf.mb121.gz 16.27MB SAIC Generic Sensor Format (GSF)
0365_20160509_072631_EX1605L1_MB.gsf.mb121.gz 2.54MB SAIC Generic Sensor Format (GSF)
0366_20160509_073435_EX1605L1_MB.gsf.mb121.gz 25.20MB SAIC Generic Sensor Format (GSF)
0367_20160509_082658_EX1605L1_MB.gsf.mb121.gz 9.17MB SAIC Generic Sensor Format (GSF)
0368_20160509_085031_EX1605L1_MB.gsf.mb121.gz 4.39MB SAIC Generic Sensor Format (GSF)
0369_20160509_090830_EX1605L1_MB.gsf.mb121.gz 4.78MB SAIC Generic Sensor Format (GSF)
0370_20160509_092341_EX1605L1_MB.gsf.mb121.gz 29.08MB SAIC Generic Sensor Format (GSF)
0371_20160509_101926_EX1605L1_MB.gsf.mb121.gz 16.85MB SAIC Generic Sensor Format (GSF)
0372_20160509_104743_EX1605L1_MB.gsf.mb121.gz 8.89MB SAIC Generic Sensor Format (GSF)
0373_20160509_110951_EX1605L1_MB.gsf.mb121.gz 6.77MB SAIC Generic Sensor Format (GSF)
0374_20160509_113029_EX1605L1_MB.gsf.mb121.gz 10.40MB SAIC Generic Sensor Format (GSF)
0375_20160509_114712_EX1605L1_MB.gsf.mb121.gz 2.12MB SAIC Generic Sensor Format (GSF)
0376_20160509_120028_EX1605L1_MB.gsf.mb121.gz 15.31MB SAIC Generic Sensor Format (GSF)
0377_20160509_123720_EX1605L1_MB.gsf.mb121.gz 1.91MB SAIC Generic Sensor Format (GSF)
0378_20160509_124357_EX1605L1_MB.gsf.mb121.gz 14.26MB SAIC Generic Sensor Format (GSF)
0379_20160509_130659_EX1605L1_MB.gsf.mb121.gz 22.08MB SAIC Generic Sensor Format (GSF)
0380_20160509_133924_EX1605L1_MB.gsf.mb121.gz 1.46MB SAIC Generic Sensor Format (GSF)
0381_20160509_134435_EX1605L1_MB.gsf.mb121.gz 12.39MB SAIC Generic Sensor Format (GSF)
0382_20160509_140509_EX1605L1_MB.gsf.mb121.gz 2.47MB SAIC Generic Sensor Format (GSF)
0383_20160509_141049_EX1605L1_MB.gsf.mb121.gz 14.27MB SAIC Generic Sensor Format (GSF)
0384_20160509_143403_EX1605L1_MB.gsf.mb121.gz 20.72MB SAIC Generic Sensor Format (GSF)
0385_20160509_150941_EX1605L1_MB.gsf.mb121.gz 3.42MB SAIC Generic Sensor Format (GSF)
0386_20160509_152130_EX1605L1_MB.gsf.mb121.gz 7.85MB SAIC Generic Sensor Format (GSF)
0387_20160509_154326_EX1605L1_MB.gsf.mb121.gz 0.67MB SAIC Generic Sensor Format (GSF)
0388_20160509_154602_EX1605L1_MB.gsf.mb121.gz 3.40MB SAIC Generic Sensor Format (GSF)
0389_20160509_155921_EX1605L1_MB.gsf.mb121.gz 0.56MB SAIC Generic Sensor Format (GSF)
0390_20160509_160135_EX1605L1_MB.gsf.mb121.gz 8.90MB SAIC Generic Sensor Format (GSF)
0391_20160509_162727_EX1605L1_MB.gsf.mb121.gz 0.76MB SAIC Generic Sensor Format (GSF)
0392_20160509_162949_EX1605L1_MB.gsf.mb121.gz 3.87MB SAIC Generic Sensor Format (GSF)
0393_20160509_164314_EX1605L1_MB.gsf.mb121.gz 3.67MB SAIC Generic Sensor Format (GSF)
0394_20160509_165533_EX1605L1_MB.gsf.mb121.gz 17.40MB SAIC Generic Sensor Format (GSF)
0395_20160509_172209_EX1605L1_MB.gsf.mb121.gz 11.24MB SAIC Generic Sensor Format (GSF)
0396_20160509_173956_EX1605L1_MB.gsf.mb121.gz 15.43MB SAIC Generic Sensor Format (GSF)
0397_20160510_042944_EX1605L1_MB.gsf.mb121.gz 12.66MB SAIC Generic Sensor Format (GSF)
0398_20160510_052946_EX1605L1_MB.gsf.mb121.gz 3.51MB SAIC Generic Sensor Format (GSF)
0399_20160510_054438_EX1605L1_MB.gsf.mb121.gz 0.66MB SAIC Generic Sensor Format (GSF)
0400_20160510_054718_EX1605L1_MB.gsf.mb121.gz 8.05MB SAIC Generic Sensor Format (GSF)
0401_20160510_062236_EX1605L1_MB.gsf.mb121.gz 8.91MB SAIC Generic Sensor Format (GSF)
0402_20160510_065708_EX1605L1_MB.gsf.mb121.gz 0.50MB SAIC Generic Sensor Format (GSF)
0403_20160510_065847_EX1605L1_MB.gsf.mb121.gz 8.82MB SAIC Generic Sensor Format (GSF)
0404_20160510_071941_EX1605L1_MB.gsf.mb121.gz 9.20MB SAIC Generic Sensor Format (GSF)
0405_20160510_073311_EX1605L1_MB.gsf.mb121.gz 7.85MB SAIC Generic Sensor Format (GSF)
0406_20160510_074622_EX1605L1_MB.gsf.mb121.gz 9.39MB SAIC Generic Sensor Format (GSF)
0407_20160510_080934_EX1605L1_MB.gsf.mb121.gz 3.42MB SAIC Generic Sensor Format (GSF)
0408_20160510_082201_EX1605L1_MB.gsf.mb121.gz 10.50MB SAIC Generic Sensor Format (GSF)
0409_20160510_084918_EX1605L1_MB.gsf.mb121.gz 2.69MB SAIC Generic Sensor Format (GSF)
0410_20160510_085446_EX1605L1_MB.gsf.mb121.gz 9.71MB SAIC Generic Sensor Format (GSF)
0411_20160510_092018_EX1605L1_MB.gsf.mb121.gz 2.53MB SAIC Generic Sensor Format (GSF)
0412_20160510_092935_EX1605L1_MB.gsf.mb121.gz 6.77MB SAIC Generic Sensor Format (GSF)
0413_20160510_095341_EX1605L1_MB.gsf.mb121.gz 10.27MB SAIC Generic Sensor Format (GSF)
0414_20160510_103110_EX1605L1_MB.gsf.mb121.gz 3.82MB SAIC Generic Sensor Format (GSF)
0415_20160510_104517_EX1605L1_MB.gsf.mb121.gz 2.53MB SAIC Generic Sensor Format (GSF)
0416_20160510_105315_EX1605L1_MB.gsf.mb121.gz 3.85MB SAIC Generic Sensor Format (GSF)
0417_20160510_110547_EX1605L1_MB.gsf.mb121.gz 1.44MB SAIC Generic Sensor Format (GSF)
0418_20160510_111011_EX1605L1_MB.gsf.mb121.gz 4.97MB SAIC Generic Sensor Format (GSF)
0419_20160510_112454_EX1605L1_MB.gsf.mb121.gz 2.13MB SAIC Generic Sensor Format (GSF)
0420_20160510_113040_EX1605L1_MB.gsf.mb121.gz 4.92MB SAIC Generic Sensor Format (GSF)
0421_20160510_114420_EX1605L1_MB.gsf.mb121.gz 1.88MB SAIC Generic Sensor Format (GSF)
0422_20160510_114923_EX1605L1_MB.gsf.mb121.gz 8.51MB SAIC Generic Sensor Format (GSF)
0423_20160510_121100_EX1605L1_MB.gsf.mb121.gz 6.21MB SAIC Generic Sensor Format (GSF)
0424_20160510_122627_EX1605L1_MB.gsf.mb121.gz 2.31MB SAIC Generic Sensor Format (GSF)
0425_20160510_123213_EX1605L1_MB.gsf.mb121.gz 6.63MB SAIC Generic Sensor Format (GSF)
0426_20160510_124743_EX1605L1_MB.gsf.mb121.gz 2.54MB SAIC Generic Sensor Format (GSF)
0427_20160510_125250_EX1605L1_MB.gsf.mb121.gz 7.17MB SAIC Generic Sensor Format (GSF)
0428_20160510_130839_EX1605L1_MB.gsf.mb121.gz 3.05MB SAIC Generic Sensor Format (GSF)
0429_20160510_131554_EX1605L1_MB.gsf.mb121.gz 5.28MB SAIC Generic Sensor Format (GSF)
0430_20160510_132708_EX1605L1_MB.gsf.mb121.gz 2.45MB SAIC Generic Sensor Format (GSF)
0431_20160510_133148_EX1605L1_MB.gsf.mb121.gz 5.29MB SAIC Generic Sensor Format (GSF)
0432_20160510_134242_EX1605L1_MB.gsf.mb121.gz 3.32MB SAIC Generic Sensor Format (GSF)
0433_20160510_135003_EX1605L1_MB.gsf.mb121.gz 3.33MB SAIC Generic Sensor Format (GSF)
0434_20160510_135638_EX1605L1_MB.gsf.mb121.gz 7.58MB SAIC Generic Sensor Format (GSF)
0435_20160510_141343_EX1605L1_MB.gsf.mb121.gz 1.90MB SAIC Generic Sensor Format (GSF)
0436_20160510_141937_EX1605L1_MB.gsf.mb121.gz 7.63MB SAIC Generic Sensor Format (GSF)
0437_20160510_143712_EX1605L1_MB.gsf.mb121.gz 21.80MB SAIC Generic Sensor Format (GSF)
0438_20160510_151307_EX1605L1_MB.gsf.mb121.gz 1.63MB SAIC Generic Sensor Format (GSF)
0439_20160510_151555_EX1605L1_MB.gsf.mb121.gz 11.38MB SAIC Generic Sensor Format (GSF)
0440_20160510_152915_EX1605L1_MB.gsf.mb121.gz 16.99MB SAIC Generic Sensor Format (GSF)
0441_20160510_155846_EX1605L1_MB.gsf.mb121.gz 10.30MB SAIC Generic Sensor Format (GSF)
0442_20160510_164513_EX1605L1_MB.gsf.mb121.gz 422.5KB SAIC Generic Sensor Format (GSF)
0443_20160510_164728_EX1605L1_MB.gsf.mb121.gz 4.48MB SAIC Generic Sensor Format (GSF)
0444_20160510_171604_EX1605L1_MB.gsf.mb121.gz 1.98MB SAIC Generic Sensor Format (GSF)
0445_20160510_172841_EX1605L1_MB.gsf.mb121.gz 8.99MB SAIC Generic Sensor Format (GSF)
0446_20160510_182845_EX1605L1_MB.gsf.mb121.gz 1.46MB SAIC Generic Sensor Format (GSF)
0447_20160510_183821_EX1605L1_MB.gsf.mb121.gz 1.24MB SAIC Generic Sensor Format (GSF)
0448_20160510_184636_EX1605L1_MB.gsf.mb121.gz 5.97MB SAIC Generic Sensor Format (GSF)
0449_20160510_192402_EX1605L1_MB.gsf.mb121.gz 449.2KB SAIC Generic Sensor Format (GSF)
0450_20160510_192630_EX1605L1_MB.gsf.mb121.gz 20.18MB SAIC Generic Sensor Format (GSF)
0451_20160510_202627_EX1605L1_MB.gsf.mb121.gz 17.41MB SAIC Generic Sensor Format (GSF)

Products: 5

Files File Size Description
EX1605L1_MB_FNL_60m_WGS84.asc.gz 252.80MB ESRI Arc ASCII
EX1605L1_MB_FNL_60m_WGS84.kmz.gz 18.53MB Compressed Keyhole Markup Language file
EX1605L1_MB_FNL_60m_WGS84.sd.gz 464.64MB Fledermaus surface
EX1605L1_MB_FNL_60m_WGS84.tif.gz 8.67MB GeoTIFF survey image
EX1605L1_MB_FNL_60m_WGS84.xyz.gz 187.06MB xyz grid file provided by the originator

Metadata Files: 8

Files File Size Description
EX1605L1_Multibeam.xml NGDC created ISO metadata
EX1605L1_COLLECTION_UNRESOLVED.xml 14.2KB XML metadata file
EX1605L1_Multibeam_COLLECTION_UNRESOLVED.xml 22.5KB XML metadata file
EX1605L1_Profile_COLLECTION_UNRESOLVED.xml 16.6KB XML metadata file
mb_bag_info.tar.gz 52.3KB Additional cruise information
v1_file_metadata.tar.gz 127.9KB File level metadata
wcp_bag_info.tar.gz 9.9KB Additional cruise information
v2_file_metadata.tar.gz 148.0KB File level metadata

Ancillary Files: 6

Files File Size Description
asvp.tar.gz 107.0KB Sound Speed Profiles (SSP or SVP)
ctd.tar.gz 5.44MB Conductivity, Temperature, Depth (CTD) data
rov_ctd.tar.gz 119.02MB Conductivity, Temperature, Depth (CTD) data
seirios_ctd.tar.gz 112.60MB Conductivity, Temperature, Depth (CTD) data
support.tar.gz 293.1KB Supporting data
xbt.tar.gz 471.3KB Expendable Bathythermograph (XBT) data

Water Column Sonar Data

Water Column Sonar Data Available: WCSD Map Viewer